GFSFLT1_con_lsi_000.txt.gz
Lid_Strength_Index
6 6 6 6 7 6 7 7 7 6 6 7 8 7 7 7 5 4 4 5 5 6 5 6 6 7 7 7 8 8 8 8
7 7 7 7 7 7 7 7 7 7 8 8 9 9 8 8 7 4 5 5 5 7 7 6 6 7 7 7 8 8 9 9
7 7 9 8 8 8 8 7 7 7 8 8 8 8 8 7 7 7 5 5 6 6 7 7 7 7 8 8 8 8 8 8
8 7 8 8 8 7 7 7 7 7 7 8 8 8 8 8 8 8 7 6 5 6 7 7 8 8 8 8 8 8 9 8
8 8 8 8 7 7 7 7 7 6 7 8 8 7 8 7 7 8 7 6 6 6 6 7 7 7 7 7 7 7 7 8
9 9 8 8 7 7 7 7 7 6 6 7 7 8 7 6 8 8 8 7 6 6 6 6 7 7 7 8 8 8 7 8
8 8 7 7 7 7 5 6 6 6 6 6 7 7 7 7 7 7 7 8 8 7 7 7 7 8 8 7 7 8 8 7
9 8 7 7 7 6 6 6 5 5 5 5 5 6 6 7 6 7 7 8 8 8 8 7 7 7 7 7 6 6 7 7
8 7 7 7 6 6 6 5 6 6 6 6 6 6 6 6 7 7 9 8 8 8 8 7 6 5 6 5 5 5 5 7
8 7 7 7 7 6 6 6 6 5 6 7 8 8 8 9 10 9 8 8 7 7 6 5 5 4 5 5 6 6 6 6
7 7 6 7 7 6 6 6 6 6 8 8 9 10 10 9 9 10 9 8 7 6 5 4 4 4 5 5 6 6 7 7
7 6 5 5 5 5 6 6 6 8 9 9 9 10 9 10 10 9 9 8 7 6 5 6 5 5 5 6 7 7 7 7
7 6 6 6 6 6 6 6 8 9 9 9 9 10 10 10 10 9 8 8 7 7 7 6 6 6 6 7 8 8 9 9
7 7 6 6 6 6 6 6 8 8 8 9 10 11 11 10 10 9 8 7 7 7 7 7 6 6 7 8 8 9 9 9
6 7 7 6 6 6 6 8 8 8 8 10 11 11 10 10 9 8 7 7 7 7 6 6 7 7 8 8 9 9 9 9
7 7 7 7 6 6 7 7 7 8 9 9 9 8 8 8 8 7 6 6 6 7 7 8 8 8 8 9 9 10 10 10
7 6 6 6 6 7 7 7 7 6 6 6 6 6 6 6 5 5 5 6 7 8 8 9 10 8 7 7 8 10 10 10
7 6 6 6 7 7 7 7 6 5 5 5 5 4 4 5 5 5 7 8 9 10 10 10 10 9 7 7 7 9 10 9
6 6 6 7 7 7 7 6 6 5 5 5 5 4 5 6 7 8 9 10 10 11 11 10 10 9 7 8 8 9 9 9

GFSFLT1_con_lsi_003.txt.gz
Lid_Strength_Index
7 8 7 7 7 7 8 6 6 6 7 7 8 8 7 7 6 5 4 4 4 6 6 6 7 7 8 8 8 8 9 9
8 8 8 8 8 8 8 8 8 7 8 8 8 8 8 8 7 6 4 4 5 6 6 6 6 7 7 7 8 9 9 9
8 8 9 8 8 8 8 7 7 8 8 8 8 8 8 8 7 7 5 4 4 5 6 6 6 7 7 7 8 9 9 9
8 8 9 9 9 9 8 8 8 8 8 8 9 9 8 9 8 8 7 5 4 5 6 6 6 6 7 8 8 8 9 9
8 8 8 8 8 8 8 8 8 7 7 8 8 8 8 7 7 7 7 6 5 4 5 6 6 7 8 8 8 9 9 10
9 9 9 9 8 8 7 7 6 6 6 7 7 7 6 6 6 8 7 7 6 5 5 5 7 6 6 7 8 9 9 9
8 8 8 7 7 7 7 7 6 6 6 6 6 7 7 7 7 7 7 8 7 7 6 6 7 7 7 9 8 8 8 9
9 9 8 7 8 8 7 7 7 6 6 6 6 6 7 7 7 7 7 9 9 9 8 9 8 8 7 7 7 7 7 7
8 7 8 8 8 7 7 7 7 6 6 7 7 8 7 7 7 8 8 9 9 9 8 7 6 6 5 5 5 5 5 6
8 8 8 8 7 7 7 7 6 6 7 8 8 8 8 8 9 9 9 9 8 8 7 6 6 5 5 4 5 6 6 6
8 8 7 7 7 7 7 7 7 7 9 8 8 8 9 9 9 9 9 8 7 6 6 5 5 4 4 4 6 6 6 6
8 7 7 7 6 6 7 7 7 8 9 9 8 8 9 9 9 9 8 7 6 6 7 6 5 5 5 6 6 7 7 7
7 7 7 7 7 7 7 7 7 8 8 8 8 8 9 10 9 8 7 7 6 7 7 6 6 6 6 7 8 8 8 9
6 6 6 6 6 7 7 7 9 8 8 8 8 10 10 9 8 7 6 7 7 6 6 7 7 7 7 8 8 8 9 9
7 6 6 7 6 7 7 8 8 8 8 9 11 10 10 9 9 8 6 6 6 6 6 6 6 7 8 8 9 10 11 10
6 6 7 6 7 7 7 7 7 7 7 9 9 8 7 8 6 5 5 5 5 5 6 7 8 8 8 9 10 10 11 10
6 6 6 6 6 7 7 7 7 6 7 6 5 5 4 5 4 4 4 4 4 6 8 8 9 8 7 7 8 10 10 10
7 7 7 6 7 8 8 8 7 6 6 5 4 5 4 4 3 4 4 7 8 9 9 9 9 9 7 7 7 10 10 10
7 5 6 7 7 8 8 7 7 6 6 8 7 7 6 6 7 8 9 9 10 10 10 10 10 9 7 8 8 10 11 11

GFSFLT1_con_lsi_006.txt.gz
Lid_Strength_Index
8 8 8 8 7 6 6 5 5 5 6 7 7 8 7 6 6 6 4 4 4 5 6 6 6 7 7 8 8 8 8 9
9 9 8 8 8 8 8 8 7 7 8 8 8 8 8 8 7 6 5 4 4 4 5 5 5 6 6 7 8 8 9 9
9 9 9 8 8 8 8 8 8 8 9 9 9 9 9 8 8 7 7 6 5 4 5 5 6 5 7 7 8 8 8 8
9 9 9 9 9 9 9 9 8 8 8 8 9 9 8 8 7 8 7 7 6 4 4 5 6 5 5 6 7 8 8 8
9 9 9 9 9 9 8 8 8 7 7 7 8 9 8 7 7 7 6 6 6 5 4 4 5 5 5 6 6 7 8 9
10 10 9 9 9 8 8 7 7 7 7 7 7 7 7 7 6 7 6 6 7 6 6 5 5 6 6 6 7 7 8 9
9 8 8 8 8 8 8 7 7 6 7 7 8 8 8 7 7 7 7 7 8 8 7 7 7 8 9 8 7 8 9 8
9 8 8 8 8 8 7 7 7 7 7 8 8 8 8 8 7 7 7 8 9 9 8 8 7 7 7 6 7 7 6 7
9 8 9 8 8 8 8 7 7 7 7 8 8 8 8 7 7 7 8 9 9 8 7 6 6 6 6 6 6 5 5 6
9 8 7 7 7 7 7 7 7 7 7 9 9 8 8 7 7 9 9 9 7 7 6 6 6 5 5 5 6 6 6 6
8 7 7 7 7 7 7 7 7 7 8 9 8 9 8 7 8 9 9 8 7 6 6 6 6 6 6 5 5 5 5 6
8 7 7 7 7 7 7 7 7 7 9 9 9 8 8 8 9 9 8 7 6 7 6 6 6 5 5 5 5 6 6 6
7 7 7 7 7 7 7 7 7 8 8 8 8 9 10 10 10 9 8 7 7 7 6 6 5 6 6 6 7 7 7 8
7 7 7 7 7 7 7 7 8 8 8 8 10 11 11 11 10 8 7 7 6 6 6 5 5 5 6 7 7 8 8 9
8 8 7 7 7 7 7 7 7 7 7 9 10 10 11 10 8 7 6 6 5 4 4 5 5 6 7 7 7 9 9 9
8 7 6 6 6 6 7 7 7 7 7 7 8 7 7 7 7 6 5 4 4 3 4 5 7 7 7 8 9 9 10 10
7 7 7 6 6 7 7 7 7 7 8 8 6 5 5 5 4 4 3 4 4 4 6 8 9 8 6 7 7 9 10 10
8 7 6 6 7 7 8 8 8 8 7 7 7 6 5 5 4 4 5 6 8 9 9 9 9 9 7 7 7 9 10 10
7 7 6 7 7 8 9 9 9 9 9 8 7 7 7 7 8 8 9 9 9 10 10 9 10 10 8 8 9 10 11 10

GFSFLT1_con_lsi_009.txt.gz
Lid_Strength_Index
6 5 5 4 3 3 1 1 0 0 1 1 2 2 2 2 2 1 1 1 0 0 -0 0 0 1 1 2 2 2 3 3
6 5 5 4 3 2 2 2 2 2 3 3 3 3 3 3 3 3 2 2 1 1 1 1 0 1 1 1 2 3 3 3
6 5 4 4 3 3 4 5 5 5 4 4 4 4 4 4 3 3 2 2 2 2 1 1 1 1 1 1 2 2 3 2
6 5 5 5 5 5 5 5 4 4 4 4 3 3 3 3 3 3 2 2 2 2 2 1 1 1 1 0 0 2 2 2
5 5 5 5 5 4 4 4 4 4 3 4 4 5 5 4 4 3 3 2 2 2 2 2 1 1 1 1 1 1 1 2
6 6 5 5 4 4 4 4 4 4 4 4 4 4 4 4 4 4 4 3 2 3 3 2 2 2 1 1 1 1 1 2
6 5 5 5 4 4 4 4 4 3 3 4 4 4 4 4 4 4 4 3 4 4 4 4 3 3 3 3 3 3 3 3
6 5 5 5 4 4 4 4 4 3 3 4 4 4 4 4 4 4 4 4 4 5 5 4 3 3 3 3 3 4 4 5
6 6 5 5 4 4 4 4 4 4 3 4 4 4 4 5 4 4 4 5 5 4 4 4 3 3 3 2 3 5 6 6
6 5 4 4 4 4 4 4 4 4 3 5 5 5 5 5 5 5 5 5 4 4 3 3 3 3 3 4 4 5 6 7
5 5 4 4 4 4 4 4 4 4 4 5 5 5 5 6 6 6 5 4 3 3 4 4 5 4 4 4 4 3 3 3
5 5 4 4 4 4 4 4 4 4 5 5 5 5 6 7 6 6 5 4 4 5 5 5 5 5 4 3 3 3 3 3
5 5 5 5 5 4 4 4 5 5 5 5 5 7 7 7 6 6 5 6 5 4 4 4 3 3 2 3 4 4 4 5
5 5 5 5 5 5 4 4 5 5 4 5 6 6 7 6 5 5 5 4 4 3 3 2 3 3 4 4 5 5 5 5
6 6 6 6 5 5 5 5 5 5 5 5 6 6 5 5 5 4 4 4 3 3 3 2 3 3 4 4 4 5 5 6
6 7 7 6 6 5 5 5 5 4 5 5 5 5 5 5 5 4 3 3 2 2 2 3 5 5 5 5 5 6 6 6
8 8 8 6 5 6 6 5 5 5 5 6 6 6 5 4 4 3 3 3 4 5 6 6 6 6 6 6 6 6 7 7
9 8 7 6 5 6 6 5 5 5 6 6 5 4 5 5 5 5 5 6 6 6 6 6 6 6 7 7 8 7 8 8
8 7 6 5 5 5 6 6 6 6 5 5 5 5 6 5 5 6 6 6 6 7 6 6 7 7 8 8 8 7 8 8

GFSFLT1_con_lsi_012.txt.gz
Lid_Strength_Index
2 3 2 1 0 0 -0 -0 -0 -1 -2 -2 -1 -0 -0 -0 -0 0 -0 -0 -1 -1 -1 -2 -2 -1 -1 -1 -0 -1 -0 0
3 1 1 1 0 1 0 0 1 -0 0 1 1 1 1 1 0 0 -0 -0 -0 -0 -0 -0 -1 -0 -1 -1 -0 0 0 -0
2 2 1 1 1 1 2 2 2 2 1 1 1 1 1 1 0 0 0 1 1 1 1 1 0 1 -0 -1 -0 1 1 -0
3 3 2 2 2 2 2 2 2 1 1 1 1 1 1 2 2 2 2 1 1 1 1 1 1 1 1 0 -0 0 1 0
4 3 3 2 2 1 2 1 1 1 1 2 2 3 3 2 2 2 2 1 1 2 1 1 1 1 1 1 0 0 0 2
3 3 3 2 1 1 1 1 2 2 2 2 2 2 2 2 2 2 2 2 2 2 2 2 1 1 0 -0 0 0 -0 1
3 3 2 2 1 1 1 2 2 1 1 2 2 2 2 3 3 3 3 3 3 2 2 2 1 1 1 1 1 1 1 2
3 3 3 2 2 1 1 1 2 2 2 2 2 2 2 3 3 3 4 4 3 2 1 1 1 1 1 1 3 4 4 5
3 3 3 2 2 2 1 2 2 2 2 2 2 2 2 3 3 3 3 3 2 2 1 1 1 1 1 2 2 3 5 6
4 3 2 2 2 2 2 2 2 2 2 2 2 2 2 3 3 3 3 2 2 1 1 2 2 2 3 3 3 4 3 3
3 3 3 3 2 2 2 2 2 2 2 2 2 2 3 4 4 4 3 2 1 2 2 3 3 3 3 3 3 2 2 2
3 3 3 2 2 2 2 2 2 2 2 3 3 3 4 4 4 3 3 2 3 3 3 3 4 3 3 2 1 2 2 3
3 3 3 3 3 3 3 3 3 3 3 3 3 4 4 3 3 3 3 3 2 2 2 2 2 2 1 2 2 2 3 4
4 3 3 4 4 4 4 4 4 3 4 4 4 3 3 3 3 2 2 2 2 2 2 2 2 1 1 2 2 2 3 3
4 4 4 5 5 5 4 4 3 4 4 4 4 3 3 3 3 3 2 2 2 1 1 2 2 3 3 3 3 3 4 4
5 5 6 6 6 4 4 4 4 4 4 4 4 3 3 3 3 3 2 2 2 3 3 3 3 4 4 4 4 4 4 5
8 7 7 7 6 4 5 5 5 4 4 4 4 3 3 3 3 2 2 3 3 3 4 4 4 4 6 6 6 5 5 5
8 7 7 5 4 5 5 5 5 4 4 4 3 3 3 3 3 3 4 4 4 4 4 4 4 4 7 7 7 6 6 5
7 6 5 4 4 5 5 5 4 3 3 3 3 3 3 3 4 4 4 4 4 4 4 4 4 4 6 7 7 6 5 5

GFSFLT1_con_lsi_015.txt.gz
Lid_Strength_Index
2 1 1 0 0 0 0 -0 -0 -0 -1 -1 -1 -1 -1 -1 -1 -0 -1 -1 -1 -1 -1 -2 -2 -1 -0 -1 -0 -0 0 0
2 1 0 0 0 0 0 0 1 -0 -0 1 1 1 0 -0 -1 -1 -1 -0 -0 -0 0 -0 -1 0 -0 -1 -0 0 1 -0
2 1 1 1 1 0 0 1 0 0 1 1 -0 -0 -0 -0 -0 -0 -0 0 1 1 1 1 1 1 -0 -0 0 1 1 0
2 2 1 1 1 1 1 1 1 1 1 0 0 0 0 1 0 1 0 0 1 1 1 1 1 0 1 -0 -0 0 2 1
3 2 2 1 1 0 0 1 1 1 0 1 1 1 2 1 1 1 1 1 2 2 2 1 0 0 0 -0 0 0 1 2
3 2 2 1 0 0 0 1 1 1 0 1 1 2 2 1 1 2 2 2 2 2 1 0 0 0 0 0 1 1 0 1
2 2 2 1 0 0 0 0 1 1 1 1 2 2 2 2 2 3 3 2 2 1 2 1 1 1 1 1 1 1 2 2
3 2 2 2 1 1 0 1 1 1 1 1 1 2 2 2 3 3 3 3 3 2 2 1 1 1 1 2 2 3 3 4
3 2 2 2 1 1 1 1 1 1 1 1 1 1 2 2 3 4 4 3 3 2 2 1 1 1 2 3 3 4 4 4
3 2 2 2 2 1 1 1 1 1 1 1 1 2 2 3 3 3 3 3 3 2 1 1 2 2 2 2 2 3 2 2
3 2 2 2 2 1 1 1 1 2 2 2 3 3 3 3 3 4 3 3 3 3 2 2 2 2 2 2 2 1 1 1
3 3 2 2 1 2 2 2 3 3 3 3 3 3 3 4 4 4 4 4 2 2 2 2 2 2 1 1 1 1 1 1
4 3 3 3 3 2 3 3 4 3 3 3 4 3 4 4 4 5 3 3 2 2 1 2 1 1 1 1 1 2 2 2
4 3 3 4 3 4 4 4 4 4 4 4 4 4 4 5 4 3 3 3 2 1 1 1 1 1 2 3 3 3 3 3
4 4 4 4 4 5 4 4 4 4 4 4 4 4 4 4 3 3 3 2 2 2 2 2 2 3 3 3 3 4 4 4
5 5 5 5 5 5 4 4 4 3 3 3 3 3 3 3 3 3 2 2 2 2 3 3 3 3 4 4 4 4 4 4
5 6 6 6 6 5 4 4 3 3 4 3 3 3 3 2 2 3 3 3 3 3 3 3 3 3 6 6 6 5 5 5
6 6 6 6 5 4 4 4 3 3 3 3 2 2 2 2 3 3 3 3 3 3 3 3 3 3 6 6 6 5 5 5
6 6 6 5 4 3 3 3 3 3 3 2 2 2 2 2 2 3 3 3 3 3 3 3 4 3 5 5 5 5 4 4

GFSFLT1_con_lsi_018.txt.gz
Lid_Strength_Index
2 2 2 1 1 0 0 1 1 0 -0 -0 -0 0 -0 -1 -0 -0 -1 -0 -0 0 1 0 0 1 1 1 1 1 1 1
3 2 1 1 1 1 1 2 2 1 1 1 1 1 1 0 0 -1 -0 -0 0 1 2 2 2 3 2 2 2 3 3 2
3 3 2 1 1 1 2 1 1 1 1 1 1 1 0 0 -0 -0 0 1 1 2 2 2 3 3 3 3 3 3 3 2
3 3 2 2 2 1 1 1 1 1 0 1 1 1 1 1 1 1 1 1 1 2 2 3 3 3 3 3 3 3 4 3
3 3 2 2 2 1 1 0 1 1 0 1 1 2 3 2 2 2 2 2 2 3 3 3 3 2 3 3 2 3 3 4
3 3 2 2 1 1 1 0 1 1 1 1 2 2 2 2 2 3 3 3 3 3 3 3 3 3 3 2 3 4 4 5
3 2 2 2 1 1 1 1 1 1 1 1 2 2 3 3 3 4 4 5 4 4 3 3 3 3 3 3 4 4 5 5
3 3 3 2 2 1 1 1 2 1 1 2 2 3 3 4 4 5 5 5 5 5 3 3 3 4 4 4 5 5 5 5
3 2 2 2 2 1 1 2 2 2 2 2 2 2 3 4 4 5 5 5 4 4 4 3 5 5 4 4 3 4 4 4
3 2 2 2 2 2 2 2 3 2 2 2 2 3 3 4 5 5 5 4 4 4 4 4 5 4 3 3 4 4 3 2
3 3 2 2 2 2 2 2 3 3 3 3 4 4 4 4 4 4 4 4 4 4 3 3 3 3 3 3 3 2 1 1
3 3 3 3 2 3 3 3 4 4 4 4 4 4 4 4 4 4 4 4 3 3 2 2 2 2 2 2 1 2 2 2
4 3 3 3 3 3 3 4 4 4 4 5 5 4 4 4 4 4 3 3 3 3 3 2 2 2 2 2 3 3 3 3
4 3 4 4 4 4 4 4 5 4 5 5 5 4 4 4 4 3 3 3 3 3 3 3 3 3 4 4 4 4 5 5
4 4 4 4 5 5 5 5 4 5 5 5 4 4 4 3 3 3 2 2 3 3 3 3 3 4 4 4 4 5 5 5
5 5 5 6 6 6 5 5 4 4 5 5 5 4 4 3 3 2 2 2 3 3 3 3 4 4 5 5 5 6 6 6
6 6 6 6 6 6 5 5 4 4 4 4 3 3 3 2 2 2 2 3 3 3 3 4 4 4 5 5 6 7 6 6
6 6 6 6 6 6 6 5 3 3 3 2 2 1 2 2 2 2 3 3 3 4 4 4 4 4 5 5 5 6 7 7
6 6 7 6 6 6 5 5 4 3 3 2 2 1 1 1 2 2 2 3 4 4 4 4 5 5 4 4 5 7 7 7

GFSFLT1_con_lsi_021.txt.gz
Lid_Strength_Index
4 3 3 3 3 4 4 3 3 2 3 3 3 3 2 2 2 2 2 2 2 3 3 4 4 4 4 4 5 4 4 4
5 4 4 4 4 4 5 5 6 5 5 5 4 4 3 3 2 2 2 2 3 3 3 4 4 5 5 5 5 5 5 4
5 5 5 5 5 6 6 5 4 4 4 4 3 4 3 3 2 2 2 3 4 4 5 5 5 5 5 5 6 6 6 5
5 5 6 5 5 5 4 4 4 4 3 3 4 3 4 4 4 4 4 4 4 5 5 5 5 5 5 5 5 5 6 5
4 4 5 4 4 4 4 3 3 3 3 4 4 5 5 5 5 5 5 5 5 5 5 5 5 5 6 5 4 6 6 7
5 4 4 3 3 4 3 3 3 3 3 4 5 5 5 5 5 6 6 6 5 5 5 6 5 5 5 5 5 5 5 5
4 4 3 3 3 3 3 3 3 3 3 4 5 5 5 6 7 7 7 6 6 6 5 5 5 6 5 5 5 6 6 6
5 5 4 3 5 4 4 4 4 4 4 4 5 6 6 7 7 8 8 7 7 7 6 6 6 5 6 6 5 5 5 5
6 5 5 5 4 4 4 4 4 4 4 5 5 5 6 7 7 7 7 7 7 6 6 5 4 4 4 4 5 5 5 5
5 5 5 5 5 5 5 5 5 4 5 5 6 6 6 7 7 7 7 6 5 6 5 4 3 3 4 4 4 5 4 4
6 5 5 5 5 5 5 5 5 6 6 6 6 7 7 7 7 7 6 6 5 5 5 4 4 3 3 3 3 3 3 3
6 5 5 5 5 5 5 6 7 7 7 7 7 7 7 7 6 6 6 5 5 5 4 3 3 3 3 3 3 3 3 3
6 5 5 6 6 6 6 7 7 7 7 7 7 7 7 7 6 5 5 5 5 4 4 4 4 4 4 4 4 5 6 6
6 6 6 7 7 7 7 7 7 7 7 8 8 7 7 7 7 6 5 5 5 5 4 4 4 4 4 5 5 5 6 6
7 7 7 7 7 8 8 7 7 7 7 7 7 7 6 6 6 5 4 4 4 5 4 3 3 4 5 5 6 6 7 7
7 7 8 8 8 8 8 7 7 6 6 6 6 5 4 6 4 3 2 3 4 4 4 3 4 5 5 7 7 8 8 8
8 7 7 8 8 9 8 8 7 6 6 6 4 4 4 3 3 2 2 4 5 5 4 4 5 5 5 5 6 8 7 7
8 7 7 8 9 8 9 9 8 8 7 6 5 4 3 3 2 2 3 4 5 5 5 5 6 6 4 5 5 7 8 8
7 7 8 9 9 9 9 9 8 8 7 5 5 4 3 3 2 2 3 4 5 5 5 6 6 5 4 4 4 7 8 8

GFSFLT1_con_lsi_024.txt.gz
Lid_Strength_Index
5 5 4 4 4 3 3 3 2 2 4 4 4 4 4 3 3 3 3 3 3 4 4 5 5 5 5 5 6 5 6 6
6 5 6 6 6 6 5 5 5 5 5 5 5 5 5 4 3 3 4 4 4 5 6 6 5 6 6 6 6 6 6 6
6 6 6 6 6 5 5 5 5 5 4 5 4 5 4 4 4 5 5 5 5 5 6 6 6 6 6 7 7 7 6 6
6 6 6 6 6 5 5 5 4 5 4 4 4 5 5 5 5 6 5 5 5 6 6 6 6 6 6 7 6 6 7 6
6 6 6 6 6 5 5 4 4 3 4 4 5 6 6 6 6 7 6 6 6 6 6 6 6 6 6 6 5 5 5 6
6 5 5 4 4 4 4 3 3 4 4 5 5 6 6 6 7 7 7 6 6 6 6 6 6 6 7 7 7 7 7 7
6 5 4 5 5 5 5 5 4 4 5 5 6 6 7 7 8 8 8 7 7 7 7 6 6 7 7 7 7 7 7 7
6 6 5 5 5 5 5 5 5 5 5 5 6 6 7 8 8 8 8 8 8 8 7 7 6 6 5 4 5 6 6 7
6 6 6 5 5 6 6 5 5 5 5 6 6 6 7 7 8 8 8 8 8 7 7 6 5 4 4 5 6 6 6 6
6 6 6 6 6 5 6 5 6 6 5 6 7 7 7 7 8 8 8 8 6 7 7 6 5 4 5 5 5 5 4 4
6 6 6 6 5 6 6 6 7 7 7 7 7 8 7 8 8 8 7 7 6 6 6 6 5 4 4 4 4 4 4 4
7 6 6 6 6 7 7 8 7 7 7 8 8 8 8 7 8 7 7 6 6 6 5 6 6 5 5 5 4 4 5 6
7 7 7 7 8 8 8 8 8 7 7 8 8 8 8 7 7 7 7 7 6 5 5 5 4 5 5 5 6 5 6 7
8 8 7 8 8 8 8 8 8 7 8 8 9 8 8 8 8 7 6 6 5 3 5 4 4 5 5 6 6 6 7 7
8 8 8 8 8 9 9 9 8 8 8 8 8 8 8 8 8 6 5 3 3 3 4 4 4 5 6 6 6 8 8 7
8 8 9 9 9 9 9 9 8 8 8 8 8 7 7 7 6 5 4 3 3 3 3 3 4 6 6 7 7 7 8 8
9 8 8 8 9 10 10 9 9 9 9 8 7 7 6 6 5 4 4 3 3 4 4 4 6 5 5 5 6 8 7 8
8 8 8 8 10 10 10 10 9 10 9 8 7 7 6 6 5 4 3 5 4 4 5 6 7 7 5 4 4 6 7 8
9 9 10 11 11 10 10 10 10 9 8 8 7 6 6 6 5 4 4 4 5 5 6 7 7 6 5 5 5 7 8 8

GFSFLT1_con_lsi_027.txt.gz
Lid_Strength_Index
6 6 4 4 4 4 3 3 2 3 5 5 5 5 5 5 5 6 5 5 5 6 6 6 5 6 6 6 7 6 7 7
6 6 6 7 7 7 6 5 6 4 5 5 6 6 6 6 6 6 6 5 5 6 6 6 6 7 7 7 7 7 7 6
7 8 8 7 7 5 6 6 6 5 5 5 5 5 5 5 6 6 6 6 6 6 6 6 6 6 7 7 7 7 7 7
7 6 6 6 6 6 6 5 5 4 4 4 5 5 5 6 7 8 7 6 6 6 6 6 7 7 7 7 7 8 8 7
6 6 6 7 6 6 5 5 5 4 5 5 5 6 6 7 8 8 7 6 6 6 6 6 7 7 8 7 7 8 8 9
6 6 6 6 6 6 6 5 5 4 5 5 5 6 7 7 7 7 7 7 7 7 7 7 7 7 8 8 8 8 7 7
6 6 6 6 6 6 7 5 5 5 5 5 6 7 7 8 8 8 8 8 8 8 7 7 7 7 7 7 7 7 7 7
7 6 6 6 6 7 6 6 5 5 6 6 6 7 8 8 8 8 9 9 8 8 8 7 7 7 6 6 6 7 7 8
7 7 7 7 6 6 6 6 5 6 6 7 7 7 7 7 8 8 9 8 8 8 8 7 6 6 6 6 7 7 7 6
8 7 7 7 7 6 7 6 6 6 7 7 7 7 7 8 8 8 8 8 7 8 8 7 6 5 6 6 7 6 5 5
7 7 7 6 6 7 7 7 7 7 7 7 8 8 8 8 8 8 8 8 8 8 8 7 6 6 5 5 5 5 5 5
8 7 7 7 8 9 8 8 8 8 8 8 8 8 8 8 8 8 8 8 8 7 6 6 6 6 5 5 5 5 6 7
8 7 8 8 9 9 8 9 9 8 8 9 9 9 9 9 8 8 8 8 7 7 6 5 4 5 4 5 5 6 7 7
9 8 8 8 9 9 9 10 10 9 9 9 9 9 9 9 9 8 8 7 7 6 6 4 5 4 4 5 5 6 7 7
9 9 9 9 9 10 10 10 10 10 10 9 9 9 9 9 9 9 8 7 6 6 4 5 4 4 5 6 7 7 7 7
9 9 9 9 9 11 11 11 10 10 9 9 9 9 8 8 8 7 7 6 5 4 4 5 4 5 6 7 7 7 8 8
9 9 9 9 11 11 11 11 10 10 10 10 9 9 8 8 8 7 7 5 5 4 4 5 7 6 4 4 5 7 7 7
9 9 9 11 12 11 12 11 11 11 10 9 9 9 9 8 8 7 6 6 5 5 6 7 7 7 5 5 5 7 8 8
10 11 12 12 12 12 12 12 12 10 10 10 9 9 9 8 8 7 5 5 7 7 8 7 8 7 6 6 6 9 9 9

GFSFLT1_con_lsi_030.txt.gz
Lid_Strength_Index
6 4 3 3 3 2 2 3 4 4 4 4 5 6 7 7 7 7 7 5 5 5 6 7 6 6 6 6 7 6 7 7
7 6 6 6 5 4 3 4 4 3 4 6 7 7 8 7 7 6 5 5 6 7 6 6 6 7 7 7 7 8 7 7
7 8 8 7 5 4 4 4 4 4 5 5 6 7 7 7 7 7 7 7 6 6 7 7 7 8 8 8 8 8 8 8
8 7 7 6 6 6 6 6 6 5 5 5 6 6 6 8 8 8 7 6 6 7 7 7 7 7 8 8 8 9 9 8
7 7 7 8 7 7 6 6 6 6 6 6 7 7 7 8 8 8 8 7 7 7 7 7 7 8 8 8 7 8 9 10
7 7 7 7 7 7 7 6 6 6 6 6 6 7 8 8 8 8 8 8 7 7 7 7 8 8 8 8 8 8 9 9
7 7 6 7 7 6 6 5 6 5 5 6 6 7 8 8 8 9 9 8 8 8 8 7 8 8 8 8 8 8 9 8
7 7 6 6 7 7 6 6 6 6 6 6 7 7 8 8 8 9 9 9 9 8 9 8 8 7 7 7 8 8 8 8
7 6 7 7 6 7 6 6 6 6 7 7 7 7 8 8 8 9 9 9 9 8 9 9 8 7 7 6 7 7 7 7
8 7 7 7 7 7 7 7 7 7 7 7 8 8 8 8 8 9 9 8 8 8 9 9 8 7 6 6 6 7 6 5
8 8 8 7 8 8 7 7 7 7 7 8 8 9 9 9 9 9 9 9 9 9 9 8 7 7 7 6 6 5 5 4
9 9 8 8 9 9 9 8 8 8 9 9 9 10 10 10 9 9 9 9 9 9 8 8 8 7 6 7 6 6 6 6
9 9 9 9 9 9 9 9 9 10 9 10 10 10 10 10 10 10 9 9 9 8 8 8 7 5 6 6 6 6 6 7
9 9 9 9 9 9 9 10 10 10 11 11 10 10 10 11 10 10 9 9 9 8 8 6 5 6 6 5 6 7 7 7
10 9 9 9 9 9 11 11 11 11 11 11 11 11 10 10 10 10 9 9 9 8 6 5 5 5 5 6 7 7 7 7
9 10 9 8 10 11 11 11 11 11 11 11 10 10 10 10 10 10 9 9 8 6 6 6 6 6 7 7 7 7 7 7
9 9 9 9 11 12 12 12 12 11 12 11 10 10 10 10 10 10 9 8 7 6 7 7 8 6 5 5 6 8 8 8
9 9 9 11 12 12 12 12 12 12 11 10 10 10 10 10 10 10 9 8 9 8 8 8 8 7 5 6 6 8 9 9
9 11 11 12 12 13 12 12 13 11 11 11 11 11 11 10 10 8 8 7 6 8 8 8 8 8 7 7 7 9 10 9

GFSFLT1_con_lsi_036.txt.gz
Lid_Strength_Index
2 1 1 0 0 0 0 -0 -0 1 3 2 4 4 3 3 3 3 2 1 1 1 2 2 2 3 3 4 4 4 4 4
2 1 1 1 1 1 0 0 2 2 2 2 3 3 3 2 2 2 1 1 2 2 2 2 3 3 4 4 4 4 4 3
3 2 1 1 1 0 0 0 0 0 -0 0 0 1 1 1 2 1 1 2 2 2 2 3 3 4 3 3 3 4 5 4
3 3 2 2 2 1 1 0 -0 -0 -0 0 1 1 2 2 2 2 1 2 2 2 2 3 3 3 4 3 4 4 6 5
3 3 2 2 1 0 0 -0 -0 -0 -0 1 1 1 2 0 1 1 1 2 2 3 3 3 3 3 3 3 4 4 5 6
3 2 2 1 1 0 -0 -0 -0 0 0 -1 -0 0 0 1 1 2 1 1 2 3 3 3 3 3 3 3 3 4 4 6
3 2 2 2 1 0 0 1 1 0 -0 -0 -0 1 1 2 2 3 3 3 3 3 3 2 2 3 3 3 3 4 5 5
3 3 3 2 1 1 0 0 1 0 -0 0 0 2 2 3 3 3 3 3 3 3 3 3 3 3 3 3 4 4 4 4
3 3 2 2 1 1 1 1 1 1 1 2 2 2 1 2 2 3 3 4 4 4 4 4 4 4 4 3 3 3 3 4
3 2 2 2 1 1 1 1 2 2 3 3 3 2 2 3 3 3 4 5 5 5 5 5 5 5 4 3 3 3 3 4
3 2 2 1 1 1 1 2 3 4 4 3 2 3 3 4 4 5 5 5 5 5 6 6 5 5 4 3 3 4 3 2
3 2 2 2 2 2 3 4 5 4 4 4 4 4 4 4 5 6 6 5 6 6 6 6 5 5 4 4 5 4 3 3
3 3 3 3 4 4 4 5 5 5 4 4 5 5 5 5 6 6 6 6 6 6 6 5 5 5 5 5 4 3 3 2
3 3 4 4 5 5 6 6 6 5 5 6 5 5 5 6 6 6 6 6 6 6 5 6 6 5 5 4 3 3 2 2
4 4 4 5 5 7 6 6 5 5 6 6 5 5 6 6 6 6 6 6 6 6 5 5 5 5 4 3 3 2 2 2
5 5 4 5 6 5 5 5 5 6 6 6 6 6 6 6 6 7 6 6 6 5 5 5 5 4 4 3 3 2 2 3
5 4 5 5 5 5 6 6 7 6 7 7 7 7 7 7 7 7 6 6 5 5 5 5 4 4 6 6 5 3 3 4
4 4 5 5 5 6 6 7 7 7 7 7 7 7 7 7 7 7 6 6 5 6 5 4 4 3 7 7 6 4 4 5
4 4 5 5 6 7 6 7 7 7 8 8 8 8 8 7 7 7 6 6 5 6 5 3 3 4 7 7 7 4 4 5

GFSFLT1_con_lsi_039.txt.gz
Lid_Strength_Index
2 1 1 0 0 0 0 0 -0 -0 0 0 2 3 2 1 2 2 1 1 0 1 2 2 2 2 3 3 3 4 4 4
2 1 1 1 0 1 1 1 -0 -0 1 1 2 2 3 2 2 1 0 0 1 1 1 2 2 3 3 2 3 3 4 3
2 2 1 1 1 1 1 1 0 -0 -0 -0 -0 0 0 -0 0 -0 -1 0 1 1 1 2 2 3 3 3 3 4 4 4
3 3 2 1 2 1 1 0 0 -0 -1 -0 -0 -1 -1 0 0 0 0 1 1 1 2 2 2 3 3 3 3 4 6 5
3 3 3 2 1 0 0 0 -0 -0 -1 -0 0 1 1 0 0 0 1 1 1 2 2 2 2 3 3 3 3 4 4 6
3 3 2 2 1 1 0 0 -0 -0 -0 -1 -0 0 -0 -1 -0 0 1 1 1 2 2 2 2 3 3 2 3 3 4 5
3 2 2 1 1 0 0 0 0 -0 -0 -0 -0 0 1 1 1 2 2 2 2 2 2 2 2 3 3 3 3 4 4 4
3 3 2 2 1 1 1 0 1 -0 -0 -0 -0 1 1 3 2 3 3 3 3 3 3 3 4 4 4 4 4 4 4 4
3 2 2 2 1 1 1 1 1 0 0 1 1 2 2 3 2 3 3 4 3 3 4 4 5 5 5 4 4 4 3 3
3 2 2 2 1 1 1 1 1 1 1 2 2 2 3 3 3 3 4 4 4 5 5 5 5 5 5 5 4 3 3 3
3 2 2 1 1 1 0 0 1 2 2 3 3 3 3 4 4 4 4 4 5 5 6 6 5 5 5 4 4 3 3 3
3 2 2 1 1 1 1 1 2 3 3 4 3 4 4 4 4 4 5 5 5 6 6 6 5 5 4 4 4 4 4 4
3 2 2 2 2 1 2 3 3 4 5 4 4 5 4 5 5 5 5 6 6 6 6 6 5 5 5 5 5 5 5 4
3 3 2 2 2 2 3 4 4 5 5 5 5 5 5 5 5 5 6 6 6 6 6 6 6 6 6 5 5 5 4 4
3 3 3 2 2 3 4 5 5 5 5 5 5 5 5 5 6 6 6 6 6 6 6 6 6 5 5 5 5 4 4 3
4 3 3 2 3 4 5 4 5 5 5 5 5 5 5 6 6 6 6 6 6 6 6 6 5 5 5 5 4 4 4 3
3 3 3 3 4 5 4 5 5 5 6 6 6 6 6 6 6 6 6 7 6 6 6 6 6 6 9 8 7 5 4 4
3 3 3 2 3 4 5 5 6 6 6 6 7 7 7 7 7 7 7 7 6 6 6 6 5 5 8 8 8 5 4 3
3 2 2 2 3 4 5 5 6 6 7 7 7 7 7 7 7 7 7 6 6 6 6 6 6 6 8 8 8 5 3 3

GFSFLT1_con_lsi_042.txt.gz
Lid_Strength_Index
2 2 1 1 1 1 1 1 0 0 1 1 1 2 2 2 2 2 2 1 0 1 2 2 3 4 4 4 5 5 5 5
2 2 1 1 1 1 1 1 0 1 1 2 2 3 2 2 2 1 1 1 1 2 2 3 3 3 4 4 5 5 6 5
3 2 2 2 2 1 1 1 1 0 0 1 0 1 2 1 1 1 0 1 2 2 2 3 3 4 4 4 5 5 6 6
4 3 2 2 2 2 1 1 1 0 1 0 0 0 1 1 1 1 1 1 2 2 3 3 3 4 4 4 5 5 7 6
3 3 3 2 2 1 1 1 1 0 0 1 1 2 2 2 2 1 2 2 2 2 3 3 3 3 4 4 4 5 6 8
4 3 3 2 2 2 1 1 1 0 0 0 1 1 1 1 1 2 2 2 2 2 3 3 4 4 4 4 5 5 6 6
3 3 3 2 2 1 1 1 1 1 0 1 1 1 1 2 2 2 2 3 4 4 3 4 4 5 5 6 6 6 7 6
4 4 3 3 2 2 2 1 2 1 1 1 1 1 2 3 3 3 4 4 5 5 5 6 6 5 6 6 7 7 7 6
4 3 3 3 2 2 2 1 1 1 1 1 0 2 3 3 3 4 5 5 5 5 6 6 6 6 6 7 7 7 6 6
4 3 3 2 2 2 2 2 1 1 1 1 2 3 3 4 4 4 5 6 5 6 6 6 6 7 6 7 7 7 7 6
4 3 3 2 2 2 1 1 1 1 2 3 3 3 4 4 4 5 6 6 6 6 7 7 7 7 6 7 7 7 7 6
4 3 2 2 2 2 2 1 2 2 3 3 4 5 5 5 5 6 7 6 6 7 7 7 7 7 7 8 8 7 7 6
3 3 3 2 2 2 2 2 3 3 4 5 5 5 5 5 6 7 7 6 6 7 7 7 7 7 7 7 7 7 7 7
3 3 3 3 3 2 2 2 3 4 5 5 5 5 6 6 6 7 6 6 7 7 7 7 7 7 8 7 7 6 6 7
4 3 3 3 3 2 2 3 4 5 5 5 6 5 5 6 6 6 6 7 7 7 7 7 7 7 7 6 6 7 8 7
4 4 3 3 3 3 3 4 5 4 5 6 6 6 5 6 6 6 6 7 7 7 7 7 7 7 7 8 8 8 8 8
4 3 3 3 3 3 3 4 4 5 5 6 6 6 6 6 7 7 7 7 7 7 7 7 8 7 9 9 9 10 8 7
4 3 3 3 3 3 4 4 4 5 6 6 6 6 6 7 7 7 8 8 7 8 8 8 7 7 9 9 9 9 8 8
3 3 3 2 3 3 3 4 5 6 6 7 6 7 8 7 8 8 7 7 7 8 8 8 8 7 8 8 8 10 8 7

GFSFLT1_con_lsi_045.txt.gz
Lid_Strength_Index
3 2 2 2 1 1 2 3 3 3 3 3 3 3 4 3 4 4 3 3 3 4 4 5 5 5 6 6 6 6 6 7
3 3 2 2 2 2 3 3 3 2 3 4 4 5 5 5 5 4 3 2 3 4 4 5 5 6 7 6 7 7 7 7
4 4 2 2 2 2 3 3 2 2 2 3 4 5 4 4 4 4 2 3 4 4 5 6 6 6 6 7 7 8 7 7
4 3 3 2 2 2 3 2 2 1 1 3 3 4 4 4 4 4 3 4 4 4 5 6 6 6 7 7 7 7 8 8
4 4 4 3 3 2 2 2 2 1 1 2 3 4 4 4 3 3 4 4 4 4 5 5 6 6 7 7 6 7 7 9
4 4 3 3 2 3 2 2 1 1 1 2 2 3 3 3 3 3 4 3 3 4 5 5 6 6 7 7 8 8 8 9
4 3 3 3 2 2 2 2 2 2 3 3 3 3 3 3 3 3 3 3 4 5 6 7 7 8 8 8 8 8 9 8
5 4 4 3 3 2 2 2 3 3 3 3 3 4 4 4 4 4 5 6 6 7 7 8 8 8 8 8 8 9 9 9
5 4 4 3 3 3 3 4 3 3 4 3 3 5 6 6 5 6 6 6 6 7 8 9 9 7 8 8 9 9 8 9
5 5 4 4 5 5 4 4 4 4 3 5 5 6 6 6 6 6 6 6 6 8 8 9 9 8 8 8 9 9 9 9
6 5 5 5 5 5 5 5 5 4 5 5 6 5 6 6 7 6 6 7 7 7 9 9 8 8 8 9 9 9 9 9
6 6 5 5 5 5 4 4 4 5 5 6 6 7 6 5 6 6 7 8 8 8 8 8 8 9 9 9 9 9 10 10
6 6 5 4 4 3 3 4 4 5 5 6 6 6 5 6 6 7 7 8 7 8 8 8 8 9 9 9 9 9 9 9
6 6 5 4 3 3 3 4 5 6 6 6 5 5 5 7 6 6 7 8 8 8 8 8 8 9 9 9 9 9 9 10
6 5 5 4 3 3 3 5 6 6 6 6 6 6 6 6 7 7 8 8 9 8 8 8 8 8 8 8 9 10 10 10
6 6 5 5 4 4 5 6 6 6 6 6 6 5 6 6 7 7 7 8 8 8 8 8 8 8 8 9 10 10 11 11
5 5 5 5 5 6 6 6 6 5 6 6 7 6 7 7 7 7 8 8 8 8 8 8 8 8 9 9 10 12 10 10
5 5 5 5 5 5 6 6 5 6 7 7 7 6 7 8 8 8 9 9 9 9 9 8 8 9 9 9 10 11 10 10
5 5 5 6 5 6 6 7 7 7 8 7 8 8 8 8 8 8 9 8 8 9 9 8 8 8 9 9 9 10 9 9

GFSFLT1_con_lsi_048.txt.gz
Lid_Strength_Index
3 3 3 2 2 1 2 3 3 4 4 4 5 5 4 4 4 4 4 4 4 5 6 6 6 7 7 7 7 8 8 8
4 3 3 2 1 1 2 3 4 4 4 5 5 5 5 5 5 5 4 4 5 5 5 6 6 7 7 7 7 8 8 8
4 3 3 2 2 2 3 3 4 4 4 5 4 5 5 6 6 5 4 5 5 5 6 6 6 7 7 7 8 8 8 8
4 4 3 2 2 3 3 3 3 4 4 4 5 6 6 5 5 4 4 4 4 5 5 6 6 6 7 7 7 8 9 8
4 4 4 3 2 2 3 3 3 3 3 4 5 6 5 5 5 4 4 4 4 4 5 6 6 6 7 7 7 9 9 10
4 4 3 3 2 3 3 3 3 3 2 3 4 6 5 4 4 4 4 4 4 5 5 6 7 7 8 9 9 10 10 10
4 3 3 3 2 3 3 3 3 2 2 3 3 4 4 4 4 5 5 5 6 6 7 7 8 8 8 9 10 10 10 10
5 5 4 3 3 3 3 3 3 2 2 3 4 4 4 4 4 4 6 7 7 7 7 8 8 8 9 9 10 10 10 10
5 4 4 3 3 3 3 3 3 3 4 5 5 5 5 5 5 5 6 7 7 8 7 7 8 9 9 9 9 9 10 10
5 4 4 3 3 3 3 2 3 4 5 5 6 7 7 7 6 6 7 7 7 8 8 8 8 9 9 9 10 10 10 10
5 4 4 4 4 5 5 5 5 5 5 6 6 6 6 6 6 7 7 7 7 8 8 8 9 9 8 9 10 10 11 11
6 6 5 5 5 6 6 6 5 6 6 6 6 6 6 5 6 6 8 7 7 7 8 8 9 9 9 10 10 10 10 11
5 6 6 6 6 5 6 6 6 7 7 7 7 6 5 6 7 7 7 7 7 8 8 8 8 9 10 10 10 10 10 10
6 6 5 5 5 5 6 6 6 6 6 6 6 5 6 6 6 7 7 7 8 9 8 9 9 9 9 10 9 10 10 10
7 6 5 5 5 5 5 5 5 6 6 6 6 5 6 6 7 8 8 8 9 9 9 8 8 9 9 8 8 9 10 10
7 7 7 6 5 5 6 6 6 6 6 6 6 6 7 7 8 8 8 8 9 9 8 8 8 8 8 9 9 10 10 10
7 7 6 5 5 6 6 7 7 6 6 7 7 7 7 7 8 9 8 9 9 8 8 8 8 8 8 8 9 10 10 11
5 5 5 5 5 6 7 7 7 8 8 8 8 7 7 8 8 9 9 9 9 9 9 9 9 8 8 7 8 10 10 10
6 6 7 8 8 8 8 8 9 9 9 9 8 8 9 9 9 9 9 9 9 9 9 9 9 7 7 7 8 9 9 9

GFSFLT1_con_lsi_051.txt.gz
Lid_Strength_Index
3 2 2 2 3 2 2 3 2 3 4 4 5 5 5 6 5 5 4 5 5 6 7 7 6 7 7 7 8 8 8 8
3 3 2 4 4 3 2 3 3 3 4 5 6 6 6 6 6 5 4 5 6 6 7 6 7 7 7 7 8 8 8 8
4 4 4 4 3 2 3 3 4 3 4 6 5 6 6 6 6 5 5 5 6 6 6 7 7 7 7 8 8 8 8 8
5 5 4 4 3 2 2 3 3 4 4 5 7 7 7 7 7 6 6 5 5 5 6 6 7 7 7 8 8 8 9 9
5 5 5 4 3 2 2 2 3 3 4 5 6 7 7 7 7 6 5 5 5 5 6 6 7 7 7 8 8 9 9 11
5 5 4 3 3 2 3 2 3 3 4 4 6 7 6 7 6 5 5 5 5 5 6 6 7 8 9 9 9 10 10 11
5 4 3 3 2 2 3 3 3 3 3 4 5 6 7 7 6 6 6 6 6 7 7 7 7 8 10 10 10 10 10 11
5 4 4 3 3 2 2 3 3 3 4 4 4 6 6 6 5 5 6 8 8 8 7 7 8 8 8 9 9 10 10 10
5 4 4 3 3 2 2 3 3 3 3 3 4 5 5 5 5 5 7 8 8 8 7 8 8 8 8 8 9 10 11 10
5 4 4 3 3 3 2 3 3 3 3 3 5 6 6 6 7 7 7 7 7 7 8 8 8 8 8 10 11 11 11 11
5 4 4 3 3 2 3 3 3 4 5 6 7 7 7 7 6 7 7 8 8 8 8 8 9 8 9 10 11 10 11 11
5 4 4 3 3 3 4 3 4 7 6 8 8 7 7 7 7 7 8 8 7 7 8 8 8 9 9 10 10 10 10 11
5 4 4 4 4 4 5 5 5 7 7 7 8 7 7 8 8 8 7 7 7 8 7 8 8 9 9 10 10 10 11 11
6 6 5 5 5 5 6 7 7 8 7 8 8 8 7 8 7 7 7 8 8 8 8 9 9 9 9 10 11 10 10 10
7 6 6 5 6 6 7 7 7 7 8 7 7 7 7 7 7 8 8 9 9 9 9 9 9 9 9 9 9 9 9 10
7 8 7 7 7 7 7 7 7 7 7 6 6 6 7 7 8 9 9 8 8 9 9 9 9 9 9 9 9 10 11 10
6 7 7 7 6 8 8 8 7 6 6 6 7 8 8 8 8 8 8 8 9 9 9 9 9 9 9 8 9 10 9 9
6 6 6 6 7 8 8 8 7 8 8 8 8 8 8 8 8 9 9 9 8 9 9 8 9 9 7 7 7 9 9 9
8 7 8 8 8 8 9 9 10 10 9 9 9 9 9 9 9 9 8 8 9 10 9 9 9 8 7 6 6 8 9 9

GFSFLT1_con_lsi_054.txt.gz
Lid_Strength_Index
3 3 2 2 3 3 3 3 3 3 3 3 4 4 5 5 5 5 6 6 6 6 7 8 8 7 8 8 8 8 8 8
3 3 2 2 4 3 2 4 4 2 2 4 5 6 6 6 5 5 6 6 6 7 8 8 7 8 8 8 8 8 9 9
4 3 3 3 4 3 3 3 4 2 2 5 5 6 6 6 5 6 6 6 7 7 7 7 7 7 8 8 8 9 9 9
5 4 4 4 4 3 3 3 4 3 3 5 6 6 6 6 7 7 6 6 7 7 7 7 7 7 8 8 8 9 10 10
5 4 4 4 3 3 3 3 3 3 3 4 6 7 7 7 7 7 6 7 7 6 7 7 7 7 8 9 9 9 10 12
5 4 4 4 4 3 3 3 3 3 3 4 6 6 6 6 6 7 6 7 6 7 7 7 8 9 9 9 10 10 11 11
5 4 5 5 5 4 4 3 3 3 3 4 5 5 6 6 7 7 8 7 7 7 8 9 8 9 10 9 9 10 10 11
7 6 6 5 4 4 4 3 3 3 3 4 4 5 5 6 7 7 8 8 9 9 9 9 8 8 8 10 9 9 10 10
7 6 5 4 3 3 3 3 3 3 2 3 4 4 6 6 7 6 7 8 9 9 9 9 8 8 8 8 9 9 9 10
7 6 4 3 3 3 3 3 2 2 2 3 4 5 6 6 6 7 8 9 8 9 8 8 8 8 8 9 9 9 10 11
6 5 4 3 3 3 2 2 2 2 3 3 4 5 6 7 7 8 8 8 9 9 9 8 8 8 9 9 9 10 11 11
6 5 4 3 3 3 3 2 2 3 4 5 6 7 8 8 7 8 8 8 8 8 8 8 9 9 9 9 10 11 11 11
5 5 4 4 3 3 3 3 3 4 6 7 8 8 8 7 8 8 8 7 7 7 8 9 9 9 9 10 10 10 11 11
6 5 5 4 4 4 4 4 5 7 7 8 7 7 8 8 8 8 7 7 8 9 8 8 9 9 9 9 10 10 10 10
7 6 5 5 5 5 6 7 7 7 7 7 7 7 8 8 8 7 7 9 9 9 9 8 8 9 9 9 10 10 10 9
7 7 7 7 7 7 7 8 8 8 8 8 8 7 7 7 7 8 8 8 10 8 8 8 8 9 9 9 10 10 9 9
7 7 7 7 7 8 8 9 9 7 8 8 8 8 8 8 8 9 9 8 8 8 9 9 9 9 8 8 8 9 9 10
7 7 7 7 7 8 9 8 8 8 9 9 8 9 9 9 9 9 9 8 8 9 9 9 10 9 8 7 7 9 9 10
10 9 9 9 9 9 10 9 9 10 10 10 10 9 9 9 8 8 8 8 8 9 10 10 10 9 7 7 7 8 10 9

GFSFLT1_con_lsi_057.txt.gz
Lid_Strength_Index
3 2 1 1 1 0 0 0 -0 0 -1 -1 -1 -1 -1 -0 1 1 2 2 3 3 4 5 4 4 4 3 3 3 3 3
3 2 1 1 1 1 1 1 0 1 0 1 1 1 0 1 2 2 2 3 3 3 5 5 4 4 3 3 3 3 4 3
3 3 2 2 2 1 1 1 1 1 0 0 0 0 0 1 2 2 2 3 3 3 4 4 4 3 3 3 3 4 4 4
4 3 3 2 2 2 1 1 0 1 0 0 1 1 2 3 3 2 2 3 4 4 4 4 3 3 4 3 3 4 5 5
4 4 3 3 2 1 1 1 1 1 1 1 1 2 2 2 2 2 3 4 5 5 4 4 3 3 4 4 4 5 6 8
4 4 3 2 2 1 1 1 1 1 2 2 1 1 1 3 3 3 3 4 4 5 4 4 4 4 4 5 5 6 6 7
4 3 2 2 2 2 1 1 1 1 1 2 1 1 2 3 3 4 4 4 4 4 4 4 4 5 5 6 7 7 8 7
4 4 3 3 3 2 2 1 2 1 2 2 2 2 2 3 4 5 4 5 5 5 4 5 6 6 6 7 8 8 8 8
4 4 3 3 3 2 2 2 2 1 1 2 2 3 2 2 4 5 5 4 4 5 5 6 6 6 7 8 8 8 8 7
4 4 3 3 3 2 2 2 1 1 1 1 2 2 2 3 5 5 3 3 5 6 7 6 6 7 7 8 8 9 8 7
4 3 3 3 2 2 1 1 1 1 1 1 2 2 2 3 4 4 5 5 6 7 7 7 7 7 7 7 8 8 8 7
5 4 3 2 2 2 2 2 1 1 1 1 1 2 2 4 5 5 6 8 8 8 7 7 7 8 8 8 9 8 7 7
4 3 3 3 3 2 2 2 2 1 1 2 2 3 4 5 6 7 8 8 8 7 6 8 8 9 9 9 8 7 7 7
4 4 4 3 3 2 2 2 2 2 3 3 4 5 5 6 7 8 7 7 7 7 8 8 7 8 7 7 7 7 7 7
4 4 4 3 3 3 2 3 3 4 5 6 6 6 6 7 7 7 7 6 8 8 8 8 8 8 7 6 7 7 7 6
5 4 4 3 3 4 4 5 6 6 7 7 7 6 7 7 7 7 8 7 7 8 7 7 7 7 7 7 7 6 6 5
5 5 4 4 5 5 6 6 6 5 6 7 7 7 7 8 8 8 8 8 8 8 8 8 8 8 9 9 8 6 5 5
6 6 6 5 5 6 6 6 6 6 6 6 7 8 8 8 9 9 9 8 7 7 8 8 8 7 9 9 9 6 5 5
8 7 7 7 6 7 7 7 7 7 9 9 9 9 9 8 7 7 7 7 7 7 8 7 7 8 10 9 8 5 5 5

GFSFLT1_con_lsi_060.txt.gz
Lid_Strength_Index
2 2 1 0 0 -0 -0 -0 -1 -1 -1 -1 -1 -1 -1 -2 -1 -1 -2 -1 -1 -1 -0 1 2 2 2 2 1 1 1 1
2 2 1 1 0 0 0 0 -0 -0 0 0 0 0 -0 -1 -1 -1 -2 -1 -2 -1 0 2 2 1 2 1 1 2 2 1
3 2 1 1 1 1 0 0 0 -0 -0 -0 -0 -0 -0 -1 -1 -1 -2 -2 -1 -0 1 2 2 2 2 1 1 2 2 2
3 3 2 1 1 1 1 0 0 -0 -1 -0 -0 -1 -0 0 -0 -0 -1 -1 -0 1 2 2 2 1 2 1 1 2 3 3
3 3 2 2 1 1 0 0 0 -0 -0 -0 0 1 1 0 0 -0 -1 -1 0 1 2 2 2 2 1 1 2 2 3 4
3 3 2 2 1 1 0 0 0 -0 -0 -0 0 1 0 -0 0 0 -0 1 2 3 2 3 3 2 1 2 2 3 5 7
3 2 2 2 1 1 1 1 1 0 0 0 0 1 1 1 1 1 0 1 1 2 4 3 3 2 2 2 3 5 6 7
3 3 3 2 2 1 1 1 1 0 0 0 0 0 1 1 1 1 1 2 3 4 4 4 2 2 2 4 6 6 7 7
3 3 2 2 2 2 1 2 1 1 1 1 0 0 0 1 1 1 0 3 5 4 4 3 2 3 6 6 7 5 6 7
3 3 2 2 2 2 1 2 1 1 1 0 1 0 0 1 0 0 1 3 4 4 2 3 6 6 5 7 6 7 8 7
3 3 2 2 1 1 1 1 1 1 1 1 1 1 0 0 1 1 2 3 2 3 4 7 6 6 6 7 8 8 8 7
3 3 2 2 1 1 1 1 1 1 1 1 1 1 1 1 1 2 3 4 4 4 7 6 7 7 8 8 8 9 8 7
3 3 2 2 2 2 2 1 1 1 1 1 1 1 1 1 2 3 4 6 7 7 8 7 7 8 9 9 9 8 6 6
3 3 3 3 2 2 2 1 1 1 1 1 2 2 3 4 5 7 8 8 8 8 6 8 10 8 8 8 7 5 5 6
3 3 3 3 2 2 2 2 1 2 3 4 6 6 7 7 7 7 8 7 7 6 7 7 8 7 7 6 6 5 5 5
4 4 3 3 3 2 2 4 5 5 6 6 6 6 7 7 7 7 7 7 7 6 7 7 7 7 7 6 6 6 5 5
4 4 3 3 3 3 3 3 4 4 6 7 7 7 7 7 7 6 5 5 6 7 7 7 7 7 8 9 8 6 6 6
4 4 3 3 3 3 3 3 3 4 5 6 6 4 5 5 5 6 8 7 8 8 7 7 7 6 8 8 9 6 6 5
4 3 3 2 2 3 3 3 3 4 5 5 5 5 6 6 6 7 7 7 7 7 6 7 6 5 9 9 10 7 6 6

GFSFLT1_con_lsi_063.txt.gz
Lid_Strength_Index
2 1 1 1 0 0 0 -0 -0 -1 -1 -1 -1 -1 -1 -1 -1 -1 -1 -1 -1 -1 -1 -1 -0 0 1 1 1 1 1 1
2 1 1 1 0 1 0 0 -0 -0 0 0 0 1 -0 -0 -1 -1 -1 -1 -1 -1 -1 -1 0 0 0 0 1 1 1 1
3 2 2 1 1 1 0 0 0 -0 -0 -0 -0 -0 -0 -0 -1 -1 -1 -1 -1 -1 -1 -1 0 0 -0 0 0 2 1 1
3 3 2 1 1 1 1 0 0 -0 -0 -0 -0 -0 -0 0 0 -0 -1 -1 -1 -1 -1 -1 0 0 1 0 1 1 2 2
3 3 2 2 1 1 0 0 0 -0 -0 0 0 1 1 0 0 -0 -0 -1 -1 -1 -1 -0 1 1 1 1 1 1 1 3
3 3 2 2 1 1 1 0 0 -0 0 -0 1 1 0 0 0 0 0 -0 -1 -1 -0 1 1 1 1 1 1 2 2 3
3 2 2 2 1 1 1 1 1 0 0 0 0 1 1 1 1 1 1 0 -0 -0 1 1 1 2 2 3 1 2 4 6
3 3 2 2 2 1 1 1 1 0 0 0 0 1 1 1 1 1 1 1 1 0 1 2 3 3 4 3 2 3 6 7
3 3 2 2 2 1 1 1 2 1 1 1 0 0 1 1 1 1 1 1 1 -0 0 3 4 3 3 3 5 7 6 7
3 3 2 2 2 2 1 1 1 1 1 1 1 0 1 1 0 0 1 0 1 2 3 4 4 4 6 6 7 7 7 8
3 3 2 2 1 1 1 1 1 1 1 1 1 1 1 0 0 1 0 0 1 3 4 4 6 7 7 6 7 8 9 8
3 3 2 2 1 1 1 1 1 1 1 1 1 1 1 1 1 1 0 1 1 3 3 6 7 8 7 7 8 9 10 9
3 3 2 2 2 2 2 1 1 1 1 1 1 1 1 1 1 1 1 3 5 5 6 7 7 7 8 9 9 9 10 10
3 3 3 2 2 2 2 1 1 1 1 1 1 2 2 4 5 6 7 7 7 8 7 7 7 8 8 8 7 7 6 6
3 3 3 2 2 2 2 2 1 1 2 3 4 5 6 7 7 8 8 8 8 7 7 8 8 8 7 7 7 6 5 5
3 3 3 3 3 2 2 3 3 3 5 6 6 6 7 7 7 7 7 7 7 8 8 8 7 7 7 6 6 6 6 6
4 3 3 3 3 3 3 5 5 5 6 7 6 7 7 7 7 8 8 8 8 7 7 7 8 7 8 9 8 7 6 6
4 4 3 3 3 2 3 4 5 6 6 6 6 6 6 6 4 5 5 6 6 8 8 8 8 7 8 8 9 6 6 6
4 3 3 2 2 2 2 2 2 3 3 3 3 4 4 4 5 5 6 7 8 7 7 7 6 5 8 8 9 7 7 6

GFSFLT1_con_lsi_066.txt.gz
Lid_Strength_Index
3 2 2 1 1 1 1 1 0 0 0 0 0 0 -0 -0 -0 -0 -0 -0 -1 -0 0 0 1 1 2 2 2 3 3 3
3 2 2 2 1 1 1 1 1 1 1 1 1 1 1 0 -0 -0 -0 -0 -0 -0 0 0 1 1 2 2 2 3 4 3
3 2 2 2 2 1 1 1 1 1 1 1 1 1 0 0 0 -0 -0 -0 -0 -0 0 0 1 1 1 2 2 3 3 3
4 3 3 2 2 2 1 1 1 1 0 0 0 0 0 1 1 1 0 -0 -0 -0 0 0 1 1 2 2 2 2 4 3
4 3 3 3 2 1 1 1 1 1 0 1 1 2 2 1 1 0 0 -0 0 -0 0 0 1 1 2 2 2 3 4 5
4 3 3 2 2 2 1 1 1 1 1 1 1 2 1 1 1 1 1 0 0 -0 0 0 2 2 2 2 3 3 4 4
3 3 2 2 2 2 1 1 1 1 1 1 1 2 2 2 2 2 1 1 0 0 0 2 1 3 3 3 3 4 4 7
4 4 3 3 3 2 2 2 2 1 1 1 1 1 1 2 2 2 2 1 1 1 1 2 2 2 3 3 4 5 7 8
4 3 3 3 3 2 2 2 2 1 1 1 1 1 1 1 1 1 2 1 1 1 1 2 2 3 3 4 6 8 8 7
4 3 3 3 3 2 2 2 2 1 1 1 1 1 1 1 1 1 1 1 1 1 2 3 4 4 4 6 7 8 8 8
3 3 3 2 2 2 2 2 2 2 1 1 1 1 1 1 1 2 1 1 3 3 4 4 4 6 7 7 7 8 8 9
3 3 3 2 2 2 2 2 2 2 1 1 1 1 1 2 2 2 2 2 2 3 4 5 7 8 6 7 8 9 10 9
3 3 2 2 3 2 2 2 2 2 1 2 2 2 2 2 3 3 3 4 4 5 6 7 7 7 7 8 9 9 9 8
3 3 3 3 2 2 2 2 2 2 2 2 2 3 3 5 6 6 6 6 7 7 7 8 7 8 8 8 8 7 8 8
3 4 3 3 3 2 3 3 3 3 4 5 7 7 7 8 7 7 8 8 7 8 8 9 9 8 8 8 7 7 7 6
3 4 4 3 3 3 4 4 5 5 6 7 8 7 8 7 8 8 8 8 7 8 8 9 8 8 7 7 7 7 7 7
3 3 4 4 4 5 6 6 7 7 8 8 8 7 8 8 8 8 8 8 9 8 8 8 8 7 9 9 8 8 8 8
4 4 4 4 5 5 5 6 6 6 7 7 7 7 7 7 7 8 8 7 6 7 8 8 8 8 9 9 9 8 8 8
4 4 4 3 4 3 4 5 6 6 6 6 6 6 5 6 6 5 6 6 8 8 8 8 7 6 9 9 10 9 10 9

GFSFLT1_con_lsi_072.txt.gz
Lid_Strength_Index
4 3 2 2 3 2 2 3 2 2 2 3 3 3 2 2 2 1 0 0 0 1 2 2 2 3 4 4 5 5 5 6
4 4 4 3 2 2 2 3 2 2 3 4 3 4 3 3 2 1 1 1 1 1 1 2 3 3 3 4 5 5 5 6
4 4 4 3 3 3 3 2 2 2 2 3 2 3 3 2 2 1 0 1 1 1 2 2 3 3 3 4 5 5 5 6
5 4 4 3 3 3 3 1 2 1 1 2 2 2 2 3 3 2 1 0 1 1 1 2 3 3 4 4 5 5 6 5
5 4 4 3 3 3 2 2 2 1 1 1 2 2 3 2 2 2 1 1 0 0 1 1 2 3 4 4 4 4 4 5
5 4 4 3 3 3 2 2 1 1 1 1 1 3 2 2 3 2 2 0 0 0 0 1 2 3 3 3 4 4 4 4
4 4 4 5 3 3 3 3 2 1 1 1 2 2 3 4 3 3 2 1 0 0 0 1 1 3 4 4 4 3 4 4
5 5 5 5 4 3 3 2 2 1 1 2 2 2 2 2 3 2 2 1 1 1 1 2 3 3 4 4 4 4 5 5
5 4 5 5 5 3 3 2 2 2 2 2 1 2 1 2 3 2 2 1 1 0 1 2 3 3 4 5 5 6 6 6
5 4 4 4 4 4 2 2 2 2 2 2 2 1 2 2 3 3 2 2 1 2 2 3 3 4 5 5 6 7 7 7
5 4 4 4 3 3 3 3 2 2 2 1 2 2 1 1 2 3 2 2 3 3 3 4 5 5 5 6 7 7 7 7
5 4 3 3 3 3 3 3 3 3 2 1 2 2 2 2 2 2 2 2 2 2 2 3 4 5 5 7 7 8 7 8
6 5 4 3 3 3 3 3 3 3 2 1 2 2 2 2 2 2 1 2 2 3 4 4 5 6 7 7 7 8 8 8
6 6 5 4 3 3 3 2 2 2 2 2 2 2 2 2 2 3 4 3 2 4 5 6 7 7 8 8 8 8 8 7
5 6 5 4 4 3 3 3 2 2 4 3 3 5 4 4 4 4 5 4 6 6 6 7 8 8 8 8 8 8 7 7
5 6 5 5 5 5 5 6 7 5 7 6 6 6 6 8 8 8 8 7 7 7 9 8 8 8 8 8 8 8 7 7
6 5 5 5 5 6 6 7 7 7 8 8 7 7 8 9 8 9 8 8 9 8 9 9 9 8 10 9 7 7 7 7
5 5 5 5 5 6 6 7 8 8 8 8 8 8 9 9 9 8 9 9 9 9 9 9 9 8 8 8 8 7 8 9
5 5 5 6 6 7 7 7 7 8 8 8 8 8 9 9 9 9 9 9 9 8 8 8 7 7 9 9 10 10 12 13

GFSFLT1_con_lsi_075.txt.gz
Lid_Strength_Index
4 3 2 2 2 2 2 2 2 3 3 3 2 3 2 2 1 2 2 3 3 3 3 3 2 3 4 4 5 6 6 6
4 3 2 2 2 2 2 3 3 3 3 3 4 4 3 3 2 2 2 2 2 2 2 3 3 3 3 4 5 5 6 7
6 5 3 3 3 2 2 3 2 3 3 3 3 4 3 3 2 2 1 1 1 2 2 2 2 3 4 5 5 5 6 7
6 5 4 3 3 2 2 3 2 2 2 3 3 3 3 3 4 3 2 1 1 2 2 2 3 3 4 4 4 5 6 6
6 5 6 4 3 3 3 3 3 2 2 3 3 3 4 3 3 3 2 1 2 1 2 2 3 3 4 4 4 5 5 6
6 6 5 4 3 3 4 3 2 2 2 3 3 4 3 3 3 3 3 1 1 1 1 2 3 3 3 3 4 5 4 4
5 5 5 4 3 4 3 3 3 2 2 2 2 3 3 3 3 3 3 2 1 1 1 1 2 2 3 3 3 4 5 5
5 5 5 5 4 4 4 3 3 2 2 1 2 2 2 2 2 2 3 3 2 1 1 1 1 1 2 3 3 4 5 5
5 5 6 5 6 5 4 4 4 3 2 1 1 1 1 2 2 2 2 2 2 1 1 1 1 2 3 3 4 4 5 5
5 5 5 5 6 6 5 4 3 3 2 2 1 1 1 2 3 3 2 3 2 1 0 1 2 4 3 4 4 5 5 6
5 4 5 5 5 6 6 5 4 2 2 1 1 1 1 1 2 3 3 3 2 2 2 3 4 4 5 5 5 6 6 6
5 4 4 4 4 4 5 5 4 3 3 2 2 2 2 2 2 3 3 2 2 2 3 3 4 4 5 5 6 7 7 8
5 4 4 4 4 4 4 4 4 3 2 2 2 2 2 2 1 2 2 2 1 2 2 1 3 4 4 5 7 7 7 8
5 5 4 4 4 4 4 3 3 3 2 2 2 2 2 2 2 2 2 1 1 1 2 3 4 5 6 7 7 8 8 7
6 6 5 4 4 3 3 3 3 3 3 3 3 2 2 2 2 2 2 1 2 3 4 4 5 7 7 8 8 8 8 8
6 6 5 4 4 4 4 4 3 3 3 3 4 5 5 5 4 4 5 5 5 6 7 7 8 8 8 8 8 8 8 8
6 6 5 5 5 5 5 5 6 5 6 6 7 6 7 8 8 8 9 8 9 9 9 9 9 9 10 10 9 8 8 8
6 5 5 5 6 4 4 5 6 6 7 8 8 8 7 8 8 9 9 9 9 9 10 9 10 9 11 10 10 8 8 9
6 5 5 6 5 5 6 6 7 7 8 8 8 8 8 9 9 9 10 9 10 9 9 9 9 9 10 10 10 9 11 12

GFSFLT1_con_lsi_078.txt.gz
Lid_Strength_Index
4 4 2 2 1 2 2 2 2 2 2 2 2 2 2 2 2 2 3 4 3 4 5 5 5 5 5 5 5 5 6 7
4 3 3 2 2 2 2 2 2 2 2 3 3 3 2 2 2 2 3 3 3 4 4 4 4 4 4 5 5 5 6 7
4 4 3 2 2 2 2 2 3 3 3 2 2 3 3 2 2 2 2 3 3 3 3 3 3 3 4 4 5 6 6 7
5 4 4 3 3 2 2 2 2 2 2 3 3 3 3 4 4 3 3 2 2 2 2 2 3 3 3 5 5 5 6 6
5 5 5 3 3 2 2 2 2 2 2 3 4 4 4 3 3 3 2 2 1 1 1 2 3 3 4 4 4 5 5 6
5 5 5 4 2 3 3 3 3 2 3 3 3 4 3 3 3 3 3 2 2 2 2 3 3 3 3 4 5 5 4 5
5 5 6 5 3 3 4 3 3 2 3 4 3 4 4 4 4 3 3 3 2 2 2 2 2 3 4 4 4 5 5 5
5 6 6 6 5 4 4 4 4 3 3 3 3 3 4 3 4 3 3 3 3 2 2 2 2 2 2 3 4 4 5 4
5 5 6 6 5 4 4 4 3 3 3 3 2 3 2 2 3 3 3 2 2 2 1 1 1 1 2 2 2 3 3 4
5 5 5 5 5 5 4 4 3 3 3 3 2 2 3 3 3 3 2 3 2 3 2 1 2 2 2 3 2 3 3 4
5 5 5 5 5 5 5 4 4 3 3 3 2 2 2 2 3 3 3 3 3 3 2 2 2 3 3 3 3 3 4 5
5 5 4 5 6 6 6 5 5 5 4 4 3 3 2 2 1 2 2 2 2 2 2 2 2 3 3 3 4 5 5 5
5 5 4 5 6 6 6 6 5 5 4 4 3 3 2 2 2 2 1 2 2 2 2 2 2 3 4 4 4 6 6 6
6 5 5 5 5 5 6 6 6 5 4 3 3 3 3 3 2 1 2 2 2 2 2 2 2 4 4 4 5 5 6 6
7 6 5 5 4 4 5 5 4 4 4 4 4 3 2 2 3 3 3 2 2 2 2 3 4 5 5 5 6 7 6 7
8 7 6 5 5 4 4 4 4 4 3 4 4 3 3 3 4 3 4 3 3 3 5 6 6 7 7 7 7 8 8 8
8 7 7 6 5 5 5 5 4 4 4 3 3 4 4 4 5 5 5 6 6 6 7 8 8 8 11 10 8 8 8 9
7 6 5 4 5 5 5 5 6 4 4 4 5 6 7 7 7 8 8 9 9 9 9 9 10 10 10 10 10 9 9 10
8 7 5 5 5 6 5 4 5 5 6 6 7 7 8 8 8 9 10 9 9 10 10 10 10 10 11 11 12 12 13 13

GFSFLT1_con_lsi_084.txt.gz
Lid_Strength_Index
2 2 1 1 1 1 1 1 2 1 0 1 1 2 2 1 2 3 3 4 4 3 3 3 3 3 3 3 3 3 3 4
2 2 2 1 1 1 2 2 1 0 1 2 2 3 2 2 2 2 2 3 3 2 2 2 2 3 2 2 2 3 3 3
3 3 2 2 2 2 1 2 2 2 1 1 1 2 2 2 2 2 2 2 3 2 2 2 2 2 2 2 1 2 2 2
4 3 3 2 2 2 2 2 2 2 1 2 2 2 2 2 2 3 2 1 2 2 1 1 1 0 1 1 1 1 2 1
4 3 3 3 2 1 1 1 1 1 1 2 2 4 4 2 2 2 2 1 1 2 1 1 0 0 0 -0 0 -0 0 1
4 3 3 2 2 1 1 1 1 1 1 2 3 3 3 2 2 3 3 1 0 1 0 0 -0 -0 -1 -1 -1 -0 -0 1
3 3 2 2 2 2 1 2 1 1 1 1 2 2 3 3 3 4 3 1 0 -1 -0 -1 -1 -1 -1 -1 -1 -1 -0 -0
4 4 3 3 2 2 2 2 2 1 1 1 1 1 1 2 1 2 2 1 0 -0 -1 -1 -1 -1 -1 -1 -1 -0 -0 0
4 3 3 3 2 2 2 2 2 1 1 1 1 0 1 1 1 2 0 0 0 -1 -1 -1 -1 -1 -1 -1 -0 -0 -0 -0
4 3 3 3 2 2 2 2 2 1 1 1 1 1 1 1 0 0 0 -0 -0 -1 -1 -0 -1 -1 -1 -1 -0 -0 -0 -0
3 3 3 3 2 2 1 1 2 1 1 1 1 1 0 0 0 0 0 -0 -0 -0 -0 -0 -0 -1 -1 -0 -0 -0 0 0
4 3 3 2 2 2 2 2 1 1 1 1 1 1 0 0 0 0 0 -0 -0 -0 -0 -0 -0 -0 -0 -0 -0 -0 0 0
3 3 3 3 2 2 2 2 1 1 1 1 1 1 0 1 0 0 -0 0 -0 -0 -0 -0 -0 -0 -0 0 0 0 1 1
3 3 3 3 3 2 2 2 2 1 1 1 1 1 1 1 1 0 -0 -0 -0 -0 -0 0 0 0 0 0 0 1 1 1
4 4 3 3 3 2 2 2 1 1 1 1 1 1 1 1 0 0 0 -0 0 0 -0 0 0 -0 0 0 0 1 1 1
4 4 3 3 3 2 2 2 1 1 1 2 2 1 1 1 1 0 0 0 0 0 0 0 -0 0 0 0 0 1 1 2
4 3 3 3 3 3 2 2 2 1 2 2 2 1 1 1 1 0 1 0 0 0 1 1 1 1 6 9 5 3 5 7
5 4 3 3 3 2 2 2 1 2 2 2 1 1 1 1 1 1 1 1 1 1 1 1 1 4 11 11 10 7 9 11
5 5 3 2 2 2 2 2 2 2 2 2 1 1 1 1 1 1 1 1 2 4 7 8 9 11 13 12 12 12 13 13

GFSFLT1_con_lsi_087.txt.gz
Lid_Strength_Index
2 2 1 1 1 1 1 1 1 0 1 1 2 2 2 3 3 3 3 3 3 3 3 4 4 4 3 3 3 2 2 3
2 2 1 1 1 1 1 1 1 1 2 2 2 3 2 3 3 3 3 2 3 3 4 4 4 4 3 2 2 2 3 2
3 2 2 2 2 1 1 1 1 1 1 2 2 3 3 3 3 3 2 3 3 2 2 3 2 3 2 2 1 3 3 2
3 3 3 2 2 2 2 1 1 1 1 1 2 2 2 3 3 4 3 3 3 2 1 2 1 2 2 1 0 1 2 2
3 3 3 2 2 1 1 1 1 1 1 2 3 4 4 3 4 4 3 2 3 3 2 1 1 1 1 0 0 -0 0 2
3 3 3 2 2 2 1 1 1 1 1 2 2 3 4 4 3 3 2 1 1 2 2 1 -0 -0 -0 -0 -0 -0 -0 1
3 3 2 2 2 1 2 2 2 1 1 1 2 3 4 3 3 3 3 2 2 2 1 -0 -0 -0 -0 -0 -1 -0 0 0
3 3 3 3 2 2 2 2 2 1 1 1 2 3 3 2 3 3 4 3 3 1 0 -0 -0 -1 -1 -1 -0 -0 0 1
3 3 3 3 2 2 2 2 2 2 1 1 1 1 2 1 1 2 3 3 2 0 -0 -0 -0 -1 -1 -1 -0 -0 -0 0
3 3 3 3 2 2 2 2 2 2 1 1 1 1 1 1 1 1 2 2 2 1 -0 -0 -0 -0 -0 -0 0 0 0 0
3 3 3 2 2 2 2 1 2 1 1 1 1 1 1 1 0 1 0 0 -0 -0 -0 -0 -0 -0 -0 -0 0 -0 0 0
3 3 3 2 2 2 2 2 2 2 1 1 1 1 1 1 1 1 0 0 0 0 0 0 0 0 -0 0 0 0 1 1
3 3 3 3 2 2 2 2 2 1 1 1 1 1 1 1 1 0 0 0 -0 0 0 0 0 0 0 0 1 0 1 1
3 3 3 3 3 2 2 2 2 1 1 1 1 1 1 1 1 1 0 0 0 0 0 0 0 0 0 0 0 1 1 1
3 3 3 3 3 2 2 2 1 1 1 1 2 1 1 1 1 1 1 1 1 1 0 0 0 0 0 0 0 0 1 1
3 3 3 3 3 3 2 2 2 1 1 2 2 1 1 1 1 1 1 1 1 0 1 0 0 0 0 0 0 1 1 1
3 3 3 3 3 3 2 2 2 1 2 2 1 1 1 1 1 1 1 1 1 0 1 1 1 1 5 7 4 1 1 3
3 3 3 2 2 2 2 2 2 2 2 2 1 1 2 1 1 1 1 1 1 1 1 1 1 1 10 10 10 6 8 10
3 4 3 2 2 2 2 2 2 2 2 2 2 2 2 1 1 1 1 1 1 1 2 2 5 9 11 11 12 12 13 14

GFSFLT1_con_lsi_090.txt.gz
Lid_Strength_Index
3 2 2 1 1 1 1 2 1 1 1 1 2 2 2 2 2 3 3 3 3 3 3 3 3 3 3 3 4 4 5 5
3 2 2 2 2 2 2 2 1 1 2 3 3 4 3 3 3 3 3 4 4 4 4 4 4 4 4 4 4 4 5 4
3 3 3 2 2 2 2 2 1 1 2 2 3 3 4 3 3 3 4 4 4 4 4 4 5 5 5 4 4 4 4 4
4 4 3 3 3 2 2 2 1 1 2 2 2 3 4 4 4 4 4 3 3 3 4 4 4 4 5 4 3 4 5 4
4 4 4 3 3 2 2 1 1 1 1 2 4 5 5 5 5 5 4 3 4 4 4 3 4 4 3 3 2 3 3 5
4 4 3 3 2 2 2 1 1 1 2 2 4 4 4 4 4 5 5 4 4 3 2 2 2 2 2 2 2 1 2 2
4 3 3 3 2 2 2 2 2 1 1 2 3 4 4 4 5 5 4 4 3 3 3 3 2 2 2 1 1 1 1 1
4 4 4 3 3 3 2 2 2 2 1 1 3 4 4 4 5 5 4 4 3 2 3 3 2 1 1 0 1 1 1 1
4 4 4 3 3 3 2 2 2 2 2 2 2 3 3 3 4 4 4 4 3 2 2 1 1 0 0 0 1 1 1 1
4 4 3 3 3 3 3 2 2 2 2 1 1 2 2 2 3 2 2 2 2 2 1 1 0 0 0 0 1 1 1 1
4 4 4 3 3 3 2 2 2 2 2 1 1 1 1 2 1 2 2 2 2 2 1 0 0 0 0 0 1 1 1 1
4 4 3 3 3 3 2 2 2 2 2 2 1 1 1 2 1 1 1 1 1 2 1 1 1 1 0 1 1 1 1 1
4 3 4 3 3 3 3 2 2 2 2 2 2 1 1 1 1 1 1 1 1 1 2 2 1 1 1 1 1 1 1 2
4 4 4 4 3 3 3 2 2 2 2 2 2 2 2 2 1 1 1 1 1 2 2 2 1 1 1 1 1 1 1 1
4 4 4 3 3 3 3 3 2 2 2 2 2 2 2 2 1 1 1 1 1 1 1 1 1 1 1 1 1 1 2 2
4 4 4 3 3 3 3 3 2 2 2 2 2 2 1 1 1 1 1 1 1 1 1 1 1 1 1 1 1 1 2 2
4 3 3 3 3 3 3 3 2 2 2 2 2 2 2 2 2 1 1 1 1 1 1 1 1 1 6 7 4 2 2 3
4 4 3 3 3 3 3 3 2 2 2 2 2 2 2 2 2 2 2 2 1 2 1 1 2 2 11 10 10 5 8 10
4 4 3 3 2 3 2 2 2 3 3 2 2 2 2 2 2 2 2 2 2 2 2 2 7 11 12 12 12 12 13 13

GFSFLT1_con_lsi_093.txt.gz
Lid_Strength_Index
4 3 3 3 3 3 3 3 1 1 1 1 2 2 2 2 1 1 0 0 0 1 2 2 2 3 4 4 5 5 5 5
4 3 3 3 3 4 4 3 1 1 2 2 3 3 3 3 2 2 1 1 1 1 2 3 3 3 4 5 5 5 6 6
4 4 4 4 4 4 4 3 1 1 1 2 3 3 3 3 3 3 2 2 2 3 3 4 4 4 5 5 5 6 6 5
5 4 4 4 4 4 4 2 1 1 1 2 3 3 3 4 4 4 3 3 3 3 4 5 5 5 5 5 5 5 6 7
5 4 4 4 4 4 3 2 1 1 2 3 4 5 5 4 4 4 4 4 4 4 4 5 5 5 5 5 4 5 6 7
5 5 4 4 4 4 4 1 1 1 2 3 3 5 5 4 4 5 5 4 4 4 4 4 4 4 4 4 4 4 5 5
5 4 3 4 4 4 3 2 2 1 2 3 4 5 5 5 5 5 5 4 4 4 4 4 4 4 3 3 3 3 3 3
5 5 4 4 5 4 3 2 2 2 2 3 4 4 4 5 5 5 5 5 5 4 4 4 3 3 2 3 3 2 2 2
5 5 4 4 4 4 4 3 3 2 2 2 3 3 4 4 5 4 5 5 5 4 4 3 3 3 2 2 2 2 2 1
5 5 4 4 4 4 4 3 2 2 2 2 3 3 3 4 4 5 4 4 4 3 3 4 3 2 2 1 1 1 1 1
5 4 4 4 4 4 4 4 2 2 2 1 2 3 3 3 3 4 3 3 3 3 2 2 2 2 1 1 1 1 1 2
6 4 4 4 4 4 4 4 2 2 2 2 1 2 2 2 3 3 2 2 2 2 2 2 2 1 0 1 1 1 2 1
6 4 4 4 4 4 4 4 3 2 2 2 2 1 2 2 3 2 2 2 2 2 2 1 1 1 1 1 1 1 2 2
6 4 4 4 4 4 4 4 3 2 2 2 2 2 2 2 2 2 2 2 3 3 2 2 2 2 1 1 1 1 1 2
6 5 4 4 4 4 4 4 3 2 2 2 2 2 2 1 2 2 2 2 2 3 3 3 3 2 2 1 1 1 1 1
5 6 5 4 4 4 4 4 4 3 2 2 2 2 1 1 1 1 2 2 2 2 2 2 2 2 2 1 1 2 2 2
5 5 5 4 4 4 3 4 4 3 3 3 2 2 2 2 2 2 1 1 2 2 2 2 2 2 5 7 3 1 2 3
5 5 4 5 5 3 3 3 3 3 4 3 2 2 2 2 2 2 2 2 1 2 2 2 2 2 7 7 8 3 5 7
5 4 4 4 4 5 5 3 3 4 3 4 3 2 3 2 2 2 2 2 2 2 2 1 4 10 12 12 12 11 12 12

GFSFLT1_con_lsi_096.txt.gz
Lid_Strength_Index
3 3 3 3 3 3 4 4 3 2 1 1 2 2 2 1 0 0 0 -0 1 2 3 4 5 4 4 4 5 5 5 5
3 3 3 3 4 4 4 4 3 2 1 3 2 3 3 3 2 0 0 0 1 2 2 3 5 4 4 4 5 5 6 6
4 4 4 4 4 4 4 4 3 2 1 2 2 3 3 2 3 2 0 0 1 2 2 3 4 3 4 5 5 6 6 6
5 5 4 4 5 5 4 4 3 2 1 2 3 3 4 4 4 3 2 1 1 1 2 3 3 4 4 4 5 6 6 6
5 5 5 5 5 4 4 3 3 2 2 3 4 4 5 4 4 4 3 1 1 2 2 3 3 4 5 5 5 5 5 6
5 5 5 5 5 5 4 3 3 2 2 3 3 4 4 4 4 4 3 3 3 2 3 3 5 5 5 5 5 5 6 6
5 4 4 5 5 5 4 3 3 2 2 3 3 4 4 5 5 5 4 4 4 4 4 4 4 5 5 5 4 5 4 5
5 5 5 5 5 5 4 4 4 2 2 3 4 4 5 5 5 5 5 5 5 4 4 4 5 5 4 3 4 3 4 4
5 5 5 5 5 5 4 4 3 2 2 3 4 5 4 5 4 5 5 5 4 4 4 4 4 4 4 3 3 3 3 3
5 5 4 5 5 5 5 4 2 2 2 2 3 4 4 4 5 4 5 5 4 4 4 4 4 4 4 3 3 3 3 3
5 5 4 4 5 5 4 4 3 2 2 2 3 3 4 3 4 5 4 5 4 4 4 4 3 4 3 3 3 3 3 2
5 5 4 4 4 5 5 4 3 2 2 2 2 3 3 3 4 4 4 3 4 3 4 4 4 3 2 2 3 2 2 2
5 5 4 4 5 5 5 5 4 3 2 2 2 2 2 3 3 3 3 3 2 3 3 3 3 2 2 2 2 1 2 2
6 5 5 4 5 5 5 5 4 3 2 2 2 2 2 3 3 3 3 2 3 2 2 3 2 2 2 2 1 1 1 1
5 5 5 4 5 5 5 5 4 4 3 2 2 2 2 2 2 3 3 3 3 3 3 3 2 2 3 2 2 1 1 1
6 6 5 4 4 4 4 5 4 4 4 2 2 2 1 1 1 2 2 3 3 3 3 3 3 3 2 2 2 3 2 2
5 6 5 5 4 4 4 5 5 4 5 4 3 2 2 2 2 1 2 2 2 3 3 3 4 3 6 7 4 2 2 2
6 6 7 7 5 3 4 4 4 4 4 4 4 3 2 2 2 2 2 2 2 3 3 3 3 3 7 8 8 2 2 2
6 7 7 7 7 6 5 3 3 4 4 4 4 4 4 3 2 2 2 2 2 2 3 3 2 3 8 9 10 6 9 10

GFSFLT1_con_lsi_099.txt.gz
Lid_Strength_Index
8 6 2 2 2 3 4 3 4 3 3 3 3 1 1 1 0 0 0 -0 1 2 3 4 4 5 5 5 6 6 5 5
6 3 3 3 3 3 4 4 3 2 3 2 2 2 2 2 0 0 0 -0 1 2 3 4 5 5 5 5 5 6 6 4
5 4 3 3 3 4 4 4 3 3 2 2 3 2 3 2 2 1 0 0 1 2 3 4 6 5 5 5 5 6 6 5
5 5 4 3 4 4 4 3 3 3 3 3 3 2 3 3 4 3 2 -0 1 1 2 4 6 4 5 5 5 5 6 7
5 5 4 4 3 4 4 4 4 4 3 3 3 3 4 4 3 3 3 2 1 1 2 3 4 3 4 5 4 5 5 6
5 5 4 3 4 4 4 4 4 4 3 3 3 3 3 3 4 3 3 2 1 1 2 3 4 3 4 5 5 5 5 6
5 4 4 4 4 5 4 4 4 4 3 3 4 3 4 4 4 4 3 3 2 1 2 3 3 4 4 5 5 5 6 6
5 5 5 4 5 5 4 4 4 4 4 3 3 4 3 4 4 4 4 4 4 3 2 3 3 4 4 4 5 5 5 6
5 5 5 4 5 5 4 4 4 4 3 3 3 4 4 4 4 4 4 4 4 4 4 3 4 4 4 4 4 4 4 4
5 5 5 4 4 5 5 5 4 4 3 3 4 4 4 4 4 4 4 4 4 4 3 3 3 3 4 4 4 5 4 4
5 5 5 4 4 5 4 4 4 4 3 3 4 4 4 4 4 4 5 4 4 4 4 3 3 3 3 4 4 4 4 3
6 5 4 4 4 5 5 4 4 4 2 3 4 4 4 4 4 4 4 4 4 4 4 4 4 4 4 4 4 4 3 4
6 5 4 4 4 5 5 4 4 3 2 2 3 3 4 4 4 4 4 4 4 3 4 4 3 4 4 4 4 4 4 4
6 5 5 5 4 5 5 5 4 4 3 2 3 3 3 4 4 4 3 3 4 3 3 3 3 3 3 3 3 3 3 3
6 5 5 4 4 5 5 5 5 4 4 2 2 3 3 3 3 3 3 3 3 3 2 2 3 2 2 2 2 2 2 2
6 6 5 5 5 5 5 5 5 4 4 4 2 2 2 3 2 2 2 3 3 3 3 3 3 3 3 3 3 3 3 3
7 8 8 5 5 5 5 5 4 4 5 4 4 3 2 2 2 2 2 3 3 3 3 3 3 3 7 8 5 3 3 3
8 8 9 9 8 6 5 4 3 3 4 4 4 4 4 2 2 2 2 2 3 3 3 3 3 3 8 8 8 4 3 3
9 9 9 9 8 8 7 4 3 4 4 4 3 3 4 4 2 2 2 2 3 3 3 4 4 4 8 8 9 5 4 6

GFSFLT1_con_lsi_102.txt.gz
Lid_Strength_Index
8 8 7 2 2 2 3 3 3 4 4 3 3 2 1 1 1 2 0 0 1 2 2 2 3 3 4 4 5 4 4 4
7 6 7 3 3 3 3 3 4 4 3 3 3 2 3 2 2 1 0 0 1 2 2 3 4 4 5 5 5 5 5 4
7 4 4 3 3 3 2 3 4 3 3 2 3 2 3 2 1 1 0 0 1 2 2 3 4 4 5 5 5 5 5 5
8 5 4 4 3 3 2 3 3 3 3 3 4 3 3 3 3 2 1 0 1 2 2 3 4 4 5 5 5 5 6 5
8 6 5 4 3 2 2 3 3 3 4 4 4 4 4 3 2 2 2 1 1 1 2 4 4 5 5 5 5 4 5 6
7 6 4 4 3 3 2 3 4 4 4 4 4 3 2 3 3 3 3 3 1 1 2 3 5 4 4 5 5 5 4 5
5 5 4 4 3 3 2 4 5 4 4 5 5 4 3 3 4 3 3 2 1 1 1 3 4 4 4 5 4 4 5 4
6 5 5 4 4 3 3 4 5 5 5 5 6 4 3 3 4 3 3 3 2 1 1 3 4 2 3 4 5 5 5 5
6 6 4 4 4 3 3 4 5 5 5 5 5 4 3 3 4 3 4 3 3 2 2 3 3 3 3 4 4 5 5 5
6 5 5 4 4 3 3 4 4 5 5 5 4 3 3 4 4 3 4 3 3 3 2 3 3 3 3 4 5 4 5 5
6 5 5 4 3 3 3 3 5 5 5 5 4 4 4 4 4 4 3 4 3 3 3 4 4 3 4 4 4 4 5 5
6 5 4 4 3 3 3 3 4 5 5 5 4 4 4 4 4 4 4 3 3 3 3 4 4 4 4 4 4 4 4 4
6 5 4 4 4 3 4 4 5 4 5 4 4 4 4 5 4 4 4 4 3 3 3 3 3 3 4 4 4 4 4 4
6 6 5 5 4 4 4 4 5 4 5 4 3 4 4 5 5 5 4 4 4 3 2 3 3 3 3 4 4 4 4 4
7 7 5 4 4 4 4 4 4 4 5 4 3 3 4 4 4 5 4 4 4 4 3 2 3 3 3 3 3 3 3 3
8 8 8 5 5 4 4 4 4 4 4 4 4 3 3 4 4 4 4 4 4 3 3 3 3 3 3 3 3 2 3 3
9 9 9 9 8 5 5 5 4 3 4 4 4 4 4 3 3 4 4 3 3 3 3 3 4 3 7 8 5 3 3 3
10 10 10 10 9 8 5 4 4 4 3 3 3 4 4 4 4 3 3 3 3 3 3 3 3 3 8 7 7 3 3 4
11 11 12 11 10 10 8 4 3 3 3 3 3 3 3 3 4 4 4 3 3 3 3 3 3 4 8 9 9 5 4 4

GFSFLT1_con_lsi_105.txt.gz
Lid_Strength_Index
4 4 4 3 2 1 1 1 1 1 1 1 1 1 1 0 -0 -0 -0 -0 0 -0 0 1 1 2 3 3 4 3 3 4
5 4 3 2 2 1 1 1 1 1 2 3 2 2 1 1 0 -0 -0 -0 0 0 1 1 1 2 4 4 4 4 4 3
4 4 2 2 2 2 2 1 1 1 1 1 1 1 1 1 0 -0 0 0 0 1 2 2 2 2 4 4 4 4 4 4
4 3 3 2 2 2 2 2 1 1 1 1 2 2 2 2 2 1 1 -0 1 1 2 3 3 3 4 4 4 4 5 4
4 3 3 2 2 2 2 1 1 1 1 2 3 3 3 2 2 1 0 -0 1 1 2 2 3 3 4 4 3 4 4 5
4 3 3 2 2 2 2 2 2 1 1 2 3 3 3 2 1 1 1 0 0 1 2 2 3 3 4 3 4 4 3 3
4 3 2 2 2 2 2 2 2 1 2 3 4 3 3 2 2 2 1 2 1 0 1 2 3 3 3 3 3 3 3 3
4 4 3 3 3 2 2 2 3 2 3 4 4 3 3 2 2 2 2 2 2 1 2 3 3 4 3 4 4 3 2 3
4 4 3 3 3 3 3 3 3 2 3 5 4 3 2 1 1 2 2 1 2 0 1 2 2 3 3 4 3 4 4 3
4 4 3 3 3 3 3 3 3 3 4 4 4 3 2 1 1 2 2 2 2 1 1 2 3 3 3 4 4 4 4 4
4 4 3 3 3 2 2 2 3 3 4 3 4 3 1 1 1 3 2 1 2 2 2 3 3 3 3 3 4 4 4 4
5 4 3 4 3 3 2 2 2 3 3 3 5 4 1 1 2 2 2 1 1 2 2 3 3 3 4 4 5 4 4 5
5 5 5 4 3 3 3 3 3 3 3 4 5 4 1 1 2 2 1 2 1 1 2 3 3 3 4 5 5 5 5 5
5 6 7 5 4 4 3 3 3 3 4 5 6 3 1 2 2 2 2 1 2 1 2 3 3 3 3 3 4 5 5 4
7 8 9 7 4 4 3 3 3 3 4 5 6 3 2 2 2 2 2 2 2 2 2 1 2 2 2 3 3 4 4 4
8 10 10 9 8 5 4 3 3 3 4 5 5 3 2 2 2 2 2 2 2 1 1 1 1 2 2 2 3 3 2 3
9 11 12 11 10 9 4 4 3 3 4 4 4 4 2 2 2 2 2 2 2 2 2 2 1 1 6 7 4 3 3 3
11 12 13 12 11 10 7 4 3 3 3 3 4 4 4 3 2 2 2 2 2 2 2 2 2 1 8 7 7 0 1 2
12 13 13 13 12 11 10 5 3 3 3 3 3 4 4 4 4 3 3 2 2 2 2 2 2 3 9 8 9 1 1 1

GFSFLT1_con_lsi_108.txt.gz
Lid_Strength_Index
2 2 2 1 1 0 0 0 0 -0 0 0 0 0 0 -0 -0 -0 -1 -1 -1 -1 -0 -0 1 2 3 3 3 3 3 3
3 3 1 1 0 0 0 0 0 0 1 2 2 2 1 0 -0 -1 -1 -1 -1 -0 -0 0 1 3 2 2 3 3 3 3
4 2 1 1 1 1 1 1 1 1 1 1 1 1 1 0 0 -0 -1 -1 -1 -0 0 0 1 2 2 1 2 3 3 2
3 3 2 1 1 1 1 1 1 0 0 1 1 1 1 1 1 1 0 -1 -0 -0 -0 0 1 1 3 3 3 4 5 3
3 3 2 2 1 1 1 1 1 0 0 1 2 2 3 1 1 1 0 -0 -0 -0 -0 -0 1 2 3 3 3 3 4 4
3 3 2 1 1 1 1 1 1 1 1 1 1 2 1 1 1 1 1 0 -0 -0 1 2 2 3 2 3 3 3 4 4
3 2 2 2 1 1 1 1 1 1 1 1 1 1 1 2 2 2 1 1 0 0 1 1 2 2 3 3 3 3 4 3
3 3 2 2 2 1 1 2 2 1 1 2 1 1 1 1 1 1 2 1 1 1 1 2 2 2 2 2 2 3 3 3
3 3 2 2 2 2 2 2 2 2 2 2 1 1 1 1 1 1 1 1 1 0 1 1 1 2 2 2 2 2 2 3
3 3 2 2 2 2 2 2 2 2 2 2 2 1 1 1 0 0 1 0 0 0 1 2 2 2 2 3 3 3 2 3
4 3 3 2 2 2 1 2 2 2 2 2 2 1 1 0 0 1 1 0 0 0 1 1 2 3 3 3 4 3 4 3
4 3 3 3 2 3 2 2 2 2 2 3 2 2 1 1 1 1 1 0 0 0 0 1 2 3 3 3 4 4 4 4
3 3 4 4 6 8 3 3 2 2 2 2 2 2 1 2 1 1 0 1 0 0 0 1 2 3 3 4 5 4 4 4
4 4 5 6 8 9 3 3 2 2 2 2 3 3 2 2 1 1 1 1 0 0 0 1 2 3 3 3 4 4 4 4
5 5 5 8 10 10 8 3 2 2 2 3 4 4 3 1 1 1 1 1 1 1 1 0 1 1 2 2 3 4 5 4
7 7 7 9 11 11 10 3 3 3 3 4 4 4 2 1 1 1 1 1 1 0 1 1 0 1 1 2 3 3 4 4
8 9 10 11 12 12 10 4 3 3 4 4 4 4 2 1 1 1 1 1 1 1 1 1 1 1 7 7 4 3 3 3
10 11 12 12 13 12 12 9 3 3 4 4 4 3 2 2 1 1 1 2 1 1 1 1 1 1 8 7 7 1 2 2
11 12 13 13 13 12 12 8 4 5 5 5 4 4 3 2 2 2 1 1 1 1 1 1 1 1 8 8 9 1 2 2

GFSFLT1_con_lsi_111.txt.gz
Lid_Strength_Index
2 1 1 1 1 -0 0 0 0 0 0 0 0 0 -0 -0 -0 -0 -1 -1 -1 -0 -0 -0 -1 0 0 0 1 1 2 1
2 1 2 1 0 0 0 0 -0 0 1 1 1 2 1 1 -0 -0 -1 -1 -0 -0 0 -0 -0 0 1 1 1 2 2 2
2 3 2 1 1 1 0 0 0 0 0 1 1 1 1 1 0 -0 -0 -0 -0 -0 -0 0 1 1 2 2 2 3 3 2
4 3 2 1 1 1 1 1 0 0 0 1 1 1 1 1 1 1 0 -0 -0 -0 -0 0 1 2 2 2 2 3 3 3
4 2 2 2 1 1 1 0 1 0 0 1 2 3 3 2 1 1 0 -0 -0 -0 -0 0 1 2 2 1 1 3 3 4
3 3 2 2 1 1 1 1 1 0 0 1 2 2 2 1 1 1 1 0 0 -0 -0 0 1 1 2 1 3 3 3 4
3 2 2 2 1 1 1 1 1 0 0 1 2 2 2 2 2 2 1 1 0 0 0 0 0 0 1 2 2 3 3 3
3 3 3 2 2 1 1 1 1 1 1 1 2 2 2 1 2 2 2 2 1 1 1 0 0 0 1 1 2 3 3 3
3 3 2 2 2 1 1 2 2 1 1 2 1 1 2 2 1 1 1 1 1 1 1 1 1 1 1 1 2 3 2 3
3 3 2 2 2 2 1 2 2 1 1 2 1 1 2 2 1 0 1 0 0 0 0 0 0 1 0 1 2 3 2 3
3 3 3 2 2 2 1 1 2 1 1 2 2 2 1 1 1 1 1 0 0 1 1 1 2 2 2 2 2 2 3 2
3 3 2 3 3 3 2 2 2 2 2 2 2 2 1 1 1 1 0 0 1 1 1 1 1 2 2 3 3 2 3 3
4 3 3 3 4 4 5 6 3 2 2 2 2 2 1 1 1 1 0 1 0 0 1 1 1 2 3 3 4 3 4 3
4 3 4 4 4 5 6 8 8 2 2 2 2 3 2 2 1 2 1 1 1 0 1 1 1 2 3 3 4 4 4 4
5 5 5 5 5 6 8 10 9 2 2 2 2 2 2 2 2 1 1 1 1 1 1 1 1 2 3 3 4 4 4 4
6 6 7 6 6 8 10 10 9 2 3 3 3 3 3 2 2 1 1 1 1 1 1 1 1 1 1 2 3 3 4 4
8 8 8 8 9 10 11 12 11 8 3 4 3 3 3 2 1 2 2 1 1 1 1 1 1 1 7 7 3 3 3 3
9 10 10 9 10 11 13 13 12 7 3 3 3 3 3 3 2 2 2 2 1 1 1 1 1 1 7 7 7 1 2 3
11 11 11 11 11 12 14 13 12 7 6 5 3 3 4 3 3 2 2 2 2 2 2 1 1 1 8 8 9 1 2 2

GFSFLT1_con_lsi_114.txt.gz
Lid_Strength_Index
3 2 2 2 1 1 1 1 1 1 1 1 1 1 0 0 0 0 -0 0 -0 0 0 0 0 0 1 1 1 1 1 1
2 2 2 1 1 1 1 1 1 1 2 2 2 2 1 1 0 0 0 -0 -0 0 0 1 0 1 1 1 1 2 2 1
3 2 2 2 1 1 1 1 1 1 1 1 1 1 1 1 1 0 0 0 0 0 0 1 0 1 1 1 2 3 2 1
4 3 3 2 2 1 1 1 1 1 1 1 1 1 2 2 1 1 1 0 0 0 0 0 1 1 2 1 2 3 3 2
5 3 3 2 2 1 1 1 1 1 1 1 2 3 3 2 2 1 1 0 0 0 0 1 1 1 2 2 2 2 2 3
5 3 3 2 2 2 1 1 1 1 1 1 2 3 2 2 1 1 1 1 0 1 0 1 1 1 1 2 2 2 2 2
4 3 2 2 1 2 1 1 2 1 1 1 2 2 2 2 2 2 2 1 1 1 1 1 1 1 2 2 2 2 2 2
5 4 3 3 2 2 2 2 2 1 2 2 2 2 2 2 2 2 2 2 2 2 1 1 1 1 2 2 2 2 2 3
4 3 3 3 3 3 3 2 2 2 2 2 2 2 2 2 2 2 2 2 1 1 1 1 1 1 2 2 1 2 2 3
4 3 4 3 3 3 3 3 3 2 2 2 2 2 2 2 1 1 1 1 1 1 1 1 1 1 1 1 2 3 2 3
4 4 4 3 3 3 3 4 4 3 2 2 2 2 1 1 1 2 2 1 1 1 1 1 1 2 1 2 2 2 3 3
4 4 3 3 3 3 4 5 5 5 5 3 2 2 2 1 2 2 2 1 1 1 1 1 2 1 1 2 2 2 3 3
4 4 4 4 4 4 5 6 6 6 7 3 2 2 2 2 2 2 2 2 1 1 1 1 2 2 2 2 3 3 3 3
6 5 4 5 5 5 6 6 7 7 7 4 2 2 2 2 2 2 2 2 2 1 1 1 2 2 2 2 3 3 3 3
6 6 6 6 7 7 8 8 8 8 8 4 3 2 2 2 2 2 3 2 2 1 1 1 1 2 2 3 3 3 4 3
7 7 7 8 8 9 9 9 9 9 10 6 3 2 2 2 3 3 2 2 1 1 1 1 1 1 2 3 3 3 3 4
8 8 9 10 10 11 10 10 10 10 10 7 2 2 2 2 3 3 3 3 2 2 2 1 2 1 7 7 4 3 3 4
10 10 11 11 11 11 11 11 10 11 9 4 3 3 3 3 3 3 3 3 2 2 2 2 2 2 8 7 7 2 3 3
11 11 11 12 11 12 11 11 12 12 13 10 5 3 3 2 3 3 3 2 2 2 2 2 2 5 9 8 8 2 3 3

GFSFLT1_con_lsi_117.txt.gz
Lid_Strength_Index
5 5 5 4 4 3 2 1 1 1 1 2 2 2 2 2 1 1 1 1 1 2 2 2 1 2 3 2 2 3 2 1
5 5 5 6 5 3 2 2 2 1 2 3 3 2 2 3 2 2 1 1 0 1 2 2 1 2 2 2 2 2 2 2
5 6 6 5 4 3 4 4 2 1 1 2 2 3 3 2 3 2 1 2 1 0 1 2 2 2 1 1 2 3 3 1
6 5 6 5 4 4 3 3 5 4 2 3 4 3 4 4 4 3 2 1 1 1 1 2 2 2 2 2 2 2 3 2
6 5 5 6 5 3 3 2 2 2 3 4 4 4 5 5 4 4 2 1 1 0 1 1 3 2 2 1 1 2 2 3
6 4 5 5 5 4 3 2 2 2 2 2 2 4 3 4 4 4 4 2 1 1 1 1 2 2 3 2 1 1 2 3
5 4 5 5 5 5 5 5 4 3 2 3 3 3 3 4 4 3 2 2 1 2 1 1 1 1 2 2 1 1 2 2
6 5 5 5 6 6 5 5 4 4 4 3 4 2 3 3 3 3 3 2 2 1 1 2 2 2 2 2 1 2 2 2
5 5 6 6 6 6 7 6 6 5 4 3 3 4 2 3 2 2 2 2 1 1 1 2 2 2 2 1 1 2 2 2
5 5 6 6 6 6 7 7 7 6 6 5 4 3 2 2 2 1 2 1 1 1 1 2 3 2 2 1 1 2 2 2
5 6 6 5 5 6 7 7 7 7 7 7 6 5 3 1 2 2 2 1 2 2 1 2 3 2 1 1 2 1 2 2
7 6 6 6 6 6 6 7 7 7 7 8 7 7 4 1 2 2 2 2 2 2 2 2 2 1 1 1 2 2 2 2
8 8 8 8 7 7 8 8 9 9 9 9 8 8 2 2 2 2 1 2 2 3 3 2 2 2 1 2 2 3 3 3
8 9 9 9 8 8 9 9 9 9 9 9 8 8 2 2 2 2 2 2 2 2 2 2 2 2 2 2 2 2 2 3
10 10 10 9 9 9 9 10 10 9 10 10 9 8 2 2 2 3 2 2 2 2 3 2 2 2 2 2 2 2 3 2
10 10 11 11 10 10 10 10 10 10 10 10 9 8 3 2 2 2 2 2 3 3 2 2 2 2 2 3 3 2 3 3
10 10 10 11 11 12 11 11 11 10 10 10 10 7 2 2 2 2 3 3 3 3 3 2 2 2 8 7 4 3 3 3
11 11 11 12 12 11 12 11 11 11 11 11 11 11 2 2 2 2 2 3 3 4 3 3 2 2 9 8 8 3 3 4
11 12 12 12 12 12 11 12 12 12 13 12 12 12 8 2 2 2 3 3 3 3 4 2 3 7 10 8 8 2 3 3

GFSFLT1_con_lsi_120.txt.gz
Lid_Strength_Index
6 6 6 6 6 2 2 1 1 1 1 1 2 1 1 1 1 1 1 0 1 1 2 2 2 3 3 3 3 4 2 1
6 6 6 6 7 6 2 2 2 1 2 2 2 3 3 2 2 1 1 1 1 2 2 2 1 2 3 3 2 2 2 1
7 6 7 6 5 5 2 2 2 1 1 1 2 2 3 2 2 2 1 2 1 1 2 2 1 2 3 3 2 2 3 2
7 6 7 5 5 4 2 2 2 1 2 3 4 4 4 4 4 3 2 2 2 1 1 2 1 1 2 2 2 2 3 2
7 7 6 5 5 4 6 6 5 5 4 4 4 3 4 4 3 3 3 2 2 2 2 2 1 2 2 2 2 1 2 3
5 5 5 5 6 6 6 6 6 5 4 4 4 4 4 4 5 4 3 2 2 1 1 1 1 1 2 2 2 2 2 2
5 5 5 6 6 6 6 6 6 5 5 4 3 3 3 4 5 5 4 3 2 1 1 2 1 2 3 2 3 2 2 2
6 6 6 7 7 7 6 6 7 6 7 7 6 5 4 3 3 3 4 4 4 2 2 2 2 2 2 2 2 2 2 1
7 7 7 7 7 7 7 7 8 7 8 8 8 6 6 4 2 2 3 2 2 2 1 1 2 2 2 2 2 2 2 1
7 7 7 8 8 8 8 8 8 8 8 8 9 8 8 6 4 1 2 2 2 1 1 1 2 3 2 2 3 3 3 1
8 9 8 8 9 9 9 9 10 9 9 9 9 9 8 8 5 3 1 2 2 1 1 1 1 2 3 3 3 3 3 1
10 10 9 9 9 9 10 10 10 10 10 10 10 10 9 8 7 5 1 1 1 2 1 2 2 3 3 3 3 3 2 2
10 11 11 11 10 10 11 11 11 10 10 10 11 10 10 7 6 3 1 1 2 1 1 2 3 2 3 3 3 3 2 3
11 12 12 12 12 12 12 12 11 11 10 10 10 10 9 8 8 2 1 2 2 1 2 3 3 3 3 3 2 2 2 2
12 13 13 13 12 12 12 12 11 11 11 10 10 10 9 9 8 4 2 1 1 2 2 3 3 4 3 2 2 2 2 2
13 13 13 13 13 13 12 11 11 10 10 10 10 10 9 8 6 3 1 2 1 1 2 3 3 4 3 3 2 2 2 3
13 13 13 13 13 13 13 12 12 11 11 11 11 10 10 9 8 3 2 2 2 2 3 3 4 4 9 7 4 2 3 3
13 13 13 13 13 12 12 12 12 13 13 12 12 12 11 11 10 2 2 2 2 2 3 3 4 4 9 8 8 3 3 3
13 13 13 13 12 12 12 12 12 13 13 13 13 12 12 11 11 7 2 2 2 3 3 4 4 6 10 10 9 4 4 3

GFSFLT1_con_lsi_123.txt.gz
Lid_Strength_Index
7 7 7 7 3 2 2 1 1 1 1 1 2 2 2 1 1 0 1 0 1 2 2 3 2 3 3 3 3 3 3 2
7 7 7 7 6 5 3 2 2 1 2 2 3 2 2 2 1 1 1 1 1 1 2 3 2 2 3 3 3 3 3 2
7 7 7 7 7 6 2 3 2 2 1 1 1 1 2 2 2 1 1 1 1 1 1 2 2 2 3 3 2 3 2 2
7 7 7 8 8 7 2 2 2 2 2 3 3 3 4 4 3 2 2 2 1 1 2 2 3 2 3 2 2 3 4 2
8 6 5 6 6 4 4 4 4 3 3 4 4 3 4 3 3 2 3 2 2 2 2 2 2 2 2 2 2 2 3 3
6 6 6 6 6 7 7 7 7 7 6 5 4 4 3 3 4 3 4 2 2 2 2 2 2 2 1 2 2 2 2 3
6 6 7 7 8 9 8 8 8 8 8 8 8 8 6 5 4 4 4 4 2 2 2 2 1 2 2 2 2 2 3 2
7 8 9 9 10 9 9 9 10 10 10 9 8 8 7 7 4 4 3 4 4 2 2 2 2 2 2 2 2 2 3 3
9 9 9 9 10 10 10 9 10 9 9 9 9 8 7 7 5 3 2 2 2 2 2 2 2 2 3 3 2 2 2 3
10 10 10 10 10 10 10 10 10 10 10 9 9 9 9 9 8 6 5 1 1 2 2 2 2 2 1 2 3 3 3 3
11 11 11 11 11 11 11 11 11 11 10 10 10 10 10 9 9 8 6 4 1 2 2 2 2 1 1 2 3 3 3 3
12 12 12 12 12 12 12 12 12 12 12 11 11 11 10 10 9 8 7 6 4 1 2 2 1 1 2 2 2 3 3 3
12 12 12 13 13 13 13 13 13 13 12 12 12 11 11 10 10 9 7 6 3 1 1 2 1 2 2 3 3 3 3 4
13 13 14 13 13 13 13 13 12 12 12 12 12 11 11 11 11 10 8 7 2 1 1 2 2 2 2 3 3 3 3 4
13 14 14 14 14 14 13 13 12 13 13 13 12 11 12 12 11 10 8 6 2 1 1 1 2 1 2 2 3 3 3 4
14 14 14 14 14 14 14 13 13 13 13 13 12 12 12 11 11 10 8 6 2 1 2 1 1 2 2 3 4 3 4 3
14 14 14 14 14 14 14 13 13 13 13 13 13 12 11 12 11 10 8 7 3 2 2 2 2 2 8 9 6 4 3 3
14 15 15 15 15 14 14 13 13 13 13 13 13 13 12 11 11 10 9 9 3 2 2 2 2 2 10 10 9 3 3 3
15 15 15 14 14 14 13 13 13 13 14 14 13 14 13 13 12 11 10 9 5 2 2 2 2 4 10 10 10 3 3 3

GFSFLT1_con_lsi_126.txt.gz
Lid_Strength_Index
7 7 3 2 2 2 2 1 1 1 1 1 1 1 1 1 1 1 1 0 1 2 2 2 2 2 3 3 3 3 3 2
7 6 6 4 3 2 2 2 1 1 2 2 2 2 1 1 0 0 0 0 0 1 1 2 2 2 2 2 2 3 3 2
6 7 8 7 4 2 2 2 2 1 1 1 2 1 1 1 0 1 1 0 1 0 1 2 2 3 3 3 2 3 3 2
6 7 8 8 8 6 3 2 2 1 1 2 4 3 3 2 2 1 1 1 2 1 1 2 2 2 3 3 2 2 3 2
6 6 7 6 5 5 2 3 3 3 3 3 4 3 3 3 2 2 1 1 1 1 1 2 2 2 3 2 2 2 2 3
5 6 7 7 6 6 5 6 7 6 4 4 4 5 4 5 4 3 3 1 1 1 2 2 2 2 2 3 3 2 2 2
6 7 7 8 7 8 8 9 9 9 9 8 7 7 6 4 4 4 3 1 2 2 2 2 2 2 2 2 2 2 2 2
8 9 10 10 10 9 10 11 11 10 10 10 10 9 8 7 5 2 2 2 2 2 2 2 2 2 2 2 2 2 2 2
11 10 11 11 11 11 11 11 12 11 11 11 10 10 9 8 7 6 4 3 2 2 2 2 2 2 2 2 2 2 2 2
11 12 12 12 13 13 13 12 12 12 11 11 10 10 10 10 10 8 7 5 3 1 2 2 1 2 2 2 2 2 3 2
11 12 12 12 12 12 12 12 12 12 12 11 11 11 11 10 10 9 8 7 6 5 1 1 1 2 2 3 3 2 2 2
13 13 13 13 13 13 13 13 13 13 13 12 12 11 11 10 10 10 9 7 7 5 4 1 1 2 2 3 3 2 2 2
13 14 14 14 14 14 14 14 14 13 13 13 12 12 11 11 11 10 9 8 7 6 3 3 1 2 2 3 3 3 2 2
13 14 15 15 14 14 14 14 14 14 14 14 14 13 13 13 12 11 10 9 8 6 5 3 2 1 2 2 3 3 3 2
14 14 14 14 14 14 14 13 13 14 13 13 14 13 13 12 12 11 10 9 9 7 5 2 1 1 1 2 2 2 2 3
14 15 15 15 15 14 14 14 14 13 14 14 14 13 13 12 12 11 11 10 9 8 5 2 1 1 1 2 3 2 2 3
16 16 16 16 16 16 15 15 14 14 14 14 14 13 13 13 12 12 11 10 10 8 6 2 2 2 8 9 5 2 3 4
16 17 17 16 16 15 15 15 14 14 14 15 15 14 14 13 13 12 12 11 10 9 7 2 2 2 9 9 9 2 3 3
16 17 16 15 15 15 15 14 14 14 14 15 15 15 15 14 13 12 12 11 11 10 8 4 2 2 9 9 10 3 3 4